KJ6MC Weather Reports


time (UTC)temp
F
wind
direction
speed
knots
gust
knots
rain 1hr
in
rain 24hr
in
rain mn
in
humidity
%
barometer
mb
20260502195756 68 186 2.6 9.6 0.00 0.00 0.00 68 1012.1
20260502195656 67 233 2.6 9.6 0.00 0.00 0.00 68 1012.1
20260502195557 67 254 2.6 9.6 0.00 0.00 0.00 70 1012.1
20260502195456 67 200 2.6 7.8 0.00 0.00 0.00 70 1012.1
20260502195352 67 221 2.6 7.8 0.00 0.00 0.00 70 1012.1
20260502195305 67 233 2.6 7.8 0.00 0.00 0.00 70 1012.2
20260502195252 67 186 2.6 7.8 0.00 0.00 0.00 70 1012.2
20260502195152 67 174 2.6 8.7 0.00 0.00 0.00 71 1012.1
20260502195052 66 136 2.6 8.7 0.00 0.00 0.00 72 1012.2
20260502194952 66 256 3.5 8.7 0.00 0.00 0.00 73 1012.2
20260502194852 66 240 3.5 8.7 0.00 0.00 0.00 72 1012.2
20260502194801 65 218 3.5 8.7 0.00 0.00 0.00 72 1012.2
20260502194752 65 219 3.5 8.7 0.00 0.00 0.00 72 1012.2
20260502194652 65 243 3.5 8.7 0.00 0.00 0.00 72 1012.2
20260502194553 65 246 3.5 8.7 0.00 0.00 0.00 72 1012.2
20260502194452 65 239 3.5 8.7 0.00 0.00 0.00 73 1012.2
20260502194352 65 277 3.5 8.7 0.00 0.00 0.00 73 1012.2
20260502194301 65 240 2.6 8.7 0.00 0.00 0.00 72 1012.2
20260502194252 65 225 2.6 8.7 0.00 0.00 0.00 72 1012.2
20260502194152 65 222 2.6 7.0 0.00 0.00 0.00 73 1012.3
20260502194052 65 256 2.6 7.0 0.00 0.00 0.00 73 1012.2
20260502193952 65 273 1.7 7.0 0.00 0.00 0.00 72 1012.3
20260502193852 65 214 1.7 7.0 0.00 0.00 0.00 72 1012.3
20260502193821 65 236 1.7 7.0 0.00 0.00 0.00 72 1012.3
20260502193803 65 242 1.7 7.0 0.00 0.00 0.00 72 1012.3
20260502193652 65 248 1.7 7.0 0.00 0.00 0.00 73 1012.3
20260502193553 65 284 1.7 9.6 0.00 0.00 0.00 72 1012.2
20260502193448 65 239 1.7 9.6 0.00 0.00 0.00 73 1012.3
20260502193348 65 212 1.7 9.6 0.00 0.00 0.00 73 1012.3
20260502193248 65 204 2.6 9.6 0.00 0.00 0.00 73 1012.3
20260502193148 65 235 2.6 9.6 0.00 0.00 0.00 73 1012.3
20260502193048 65 240 2.6 9.6 0.00 0.00 0.00 73 1012.3
20260502192948 65 240 2.6 9.6 0.00 0.00 0.00 73 1012.3
20260502192848 65 246 3.5 9.6 0.00 0.00 0.00 73 1012.3
20260502192802 65 252 3.5 9.6 0.00 0.00 0.00 72 1012.3
20260502192748 65 229 3.5 9.6 0.00 0.00 0.00 72 1012.3
20260502192648 65 214 2.6 9.6 0.00 0.00 0.00 72 1012.3
20260502192548 65 228 1.7 7.8 0.00 0.00 0.00 73 1012.3
20260502192448 65 222 1.7 7.8 0.00 0.00 0.00 72 1012.3
20260502192348 65 243 1.7 7.8 0.00 0.00 0.00 72 1012.3
20260502192305 65 252 1.7 7.8 0.00 0.00 0.00 72 1012.3
20260502192246 65 246 1.7 7.8 0.00 0.00 0.00 72 1012.4
20260502192146 65 212 1.7 7.8 0.00 0.00 0.00 72 1012.4
20260502192046 65 236 1.7 7.0 0.00 0.00 0.00 73 1012.4
20260502191946 65 160 1.7 6.1 0.00 0.00 0.00 73 1012.3
20260502191846 65 239 1.7 6.1 0.00 0.00 0.00 74 1012.3
20260502191802 65 253 1.7 6.1 0.00 0.00 0.00 76 1012.3
20260502191747 64 248 1.7 6.1 0.00 0.00 0.00 76 1012.3
20260502191644 64 158 1.7 6.1 0.00 0.00 0.00 75 1012.3
20260502191544 64 274 2.6 7.0 0.00 0.00 0.00 75 1012.3
20260502191518 63 235 2.6 7.8 0.00 0.00 0.00 76 1012.4
20260502191444 64 238 2.6 7.0 0.00 0.00 0.00 75 1012.3
20260502191412 63 222 2.6 7.0 0.00 0.00 0.00 76 1012.4
20260502191244 63 235 2.6 7.8 0.00 0.00 0.00 76 1012.4
20260502191144 63 242 2.6 7.8 0.00 0.00 0.00 78 1012.5
20260502191044 62 242 3.5 8.7 0.00 0.00 0.00 77 1012.4
20260502190944 62 257 3.5 8.7 0.00 0.00 0.00 77 1012.4
20260502190844 62 253 4.3 10.4 0.00 0.00 0.00 77 1012.5
20260502190801 62 248 4.3 10.4 0.00 0.00 0.00 77 1012.5
20260502190745 62 236 4.3 10.4 0.00 0.00 0.00 77 1012.5
20260502190644 62 256 4.3 10.4 0.00 0.00 0.00 77 1012.6
20260502190544 62 221 3.5 10.4 0.00 0.00 0.00 78 1012.6
20260502190444 62 250 4.3 10.4 0.00 0.00 0.00 78 1012.6
20260502190344 61 215 4.3 10.4 0.00 0.00 0.00 77 1012.6
20260502190301 61 248 3.5 10.4 0.00 0.00 0.00 78 1012.6
20260502190245 61 235 3.5 10.4 0.00 0.00 0.00 78 1012.6
20260502190144 61 212 3.5 10.4 0.00 0.00 0.00 77 1012.6
20260502190044 61 228 3.5 10.4 0.00 0.00 0.00 77 1012.7
20260502185944 61 242 3.5 10.4 0.00 0.00 0.00 77 1012.7
20260502185844 61 219 2.6 8.7 0.00 0.00 0.00 77 1012.7
20260502185759 61 236 2.6 8.7 0.00 0.00 0.00 77 1012.7
20260502185743 61 215 2.6 8.7 0.00 0.00 0.00 77 1012.8
20260502185644 61 226 2.6 8.7 0.00 0.00 0.00 77 1012.7
20260502185544 61 256 2.6 8.7 0.00 0.00 0.00 78 1012.7
20260502185444 61 236 2.6 9.6 0.00 0.00 0.00 78 1012.7
20260502185344 61 230 2.6 9.6 0.00 0.00 0.00 78 1012.7
20260502185258 61 259 2.6 9.6 0.00 0.00 0.00 78 1012.7
20260502185244 61 281 2.6 9.6 0.00 0.00 0.00 79 1012.7
20260502185144 61 283 2.6 9.6 0.00 0.00 0.00 79 1012.7
20260502185044 61 217 2.6 10.4 0.00 0.00 0.00 78 1012.8
20260502184945 61 253 2.6 10.4 0.00 0.00 0.00 79 1012.7
20260502184844 61 236 3.5 10.4 0.00 0.00 0.00 79 1012.7
20260502184759 61 204 3.5 10.4 0.00 0.00 0.00 79 1012.7
20260502184744 61 262 3.5 10.4 0.00 0.00 0.00 80 1012.7
20260502184644 61 215 3.5 10.4 0.00 0.00 0.00 79 1012.7
20260502184545 60 256 3.5 10.4 0.00 0.00 0.00 79 1012.7
20260502184440 60 245 3.5 10.4 0.00 0.00 0.00 80 1012.7
20260502184341 60 264 3.5 10.4 0.00 0.00 0.00 80 1012.6
20260502184258 60 243 3.5 10.4 0.00 0.00 0.00 80 1012.6
20260502184240 60 243 4.3 10.4 0.00 0.00 0.00 80 1012.6
20260502184140 60 245 3.5 10.4 0.00 0.00 0.00 80 1012.7
20260502184040 60 239 4.3 10.4 0.00 0.00 0.00 80 1012.6
20260502183941 60 266 4.3 11.3 0.00 0.00 0.00 80 1012.7
20260502183838 60 238 4.3 11.3 0.00 0.00 0.00 80 1012.7
20260502183757 60 250 4.3 11.3 0.00 0.00 0.00 80 1012.7
20260502183738 60 236 4.3 11.3 0.00 0.00 0.00 80 1012.7
20260502183638 60 278 4.3 11.3 0.00 0.00 0.00 81 1012.7
20260502183538 60 225 4.3 11.3 0.00 0.00 0.00 81 1012.7
20260502183518 60 248 3.5 11.3 0.00 0.00 0.00 80 1012.8
20260502183437 60 215 4.3 11.3 0.00 0.00 0.00 81 1012.8
20260502183409 60 238 3.5 11.3 0.00 0.00 0.00 81 1012.8
20260502183236 60 228 3.5 11.3 0.00 0.00 0.00 80 1012.7
20260502183136 60 246 3.5 11.3 0.00 0.00 0.00 81 1012.7
20260502183035 60 238 3.5 11.3 0.00 0.00 0.00 80 1012.7
20260502182936 60 233 3.5 11.3 0.00 0.00 0.00 81 1012.7
20260502182836 60 181 3.5 11.3 0.00 0.00 0.00 81 1012.7
20260502182801 60 229 3.5 11.3 0.00 0.00 0.00 81 1012.7
20260502182736 59 232 3.5 11.3 0.00 0.00 0.00 81 1012.7
20260502182636 59 248 3.5 11.3 0.00 0.00 0.00 81 1012.7
20260502182536 59 219 3.5 11.3 0.00 0.00 0.00 80 1012.8
20260502182436 59 253 3.5 11.3 0.00 0.00 0.00 80 1012.7
20260502182334 59 269 4.3 11.3 0.00 0.00 0.00 81 1012.8
20260502182259 59 214 4.3 11.3 0.00 0.00 0.00 81 1012.8
20260502182234 59 283 4.3 11.3 0.00 0.00 0.00 80 1012.8
20260502182134 59 263 4.3 11.3 0.00 0.00 0.00 80 1012.8
20260502182028 59 246 4.3 11.3 0.00 0.00 0.00 80 1012.8
20260502181928 60 203 3.5 11.3 0.00 0.00 0.00 80 1012.8
20260502181828 60 242 4.3 9.6 0.00 0.00 0.00 80 1012.8
20260502181758 60 288 4.3 9.6 0.00 0.00 0.00 80 1012.8
20260502181728 60 256 4.3 10.4 0.00 0.00 0.00 80 1012.7
20260502181628 60 236 4.3 10.4 0.00 0.00 0.00 80 1012.7
20260502181528 60 240 4.3 10.4 0.00 0.00 0.00 80 1012.7
20260502181429 60 235 4.3 10.4 0.00 0.00 0.00 80 1012.7
20260502181256 60 253 3.5 10.4 0.00 0.00 0.00 79 1012.7
20260502181229 60 214 3.5 10.4 0.00 0.00 0.00 79 1012.7
20260502181128 60 255 3.5 10.4 0.00 0.00 0.00 79 1012.7
20260502181028 60 238 3.5 10.4 0.00 0.00 0.00 79 1012.7
20260502180928 60 212 3.5 10.4 0.00 0.00 0.00 79 1012.7
20260502180828 60 193 2.6 10.4 0.00 0.00 0.00 78 1012.6
20260502180756 60 241 2.6 10.4 0.00 0.00 0.00 79 1012.6
20260502180728 60 155 2.6 8.7 0.00 0.00 0.00 79 1012.5
20260502180626 60 224 2.6 8.7 0.00 0.00 0.00 78 1012.5
20260502180526 60 215 2.6 8.7 0.00 0.00 0.00 78 1012.5
20260502180426 60 241 2.6 8.7 0.00 0.00 0.00 78 1012.5
20260502180326 60 248 2.6 8.7 0.00 0.00 0.00 78 1012.6
20260502180255 61 222 2.6 8.7 0.00 0.00 0.00 78 1012.6
20260502180228 61 240 2.6 8.7 0.00 0.00 0.00 79 1012.6
20260502180126 61 235 2.6 8.7 0.00 0.00 0.00 78 1012.6
20260502170515 59 170 2.6 10.4 0.00 0.00 0.00 81 1012.5
20260502170503 59 221 2.6 10.4 0.00 0.00 0.00 81 1012.5
20260502170415 59 296 3.5 10.4 0.00 0.00 0.00 81 1012.6
20260502170407 59 214 2.6 10.4 0.00 0.00 0.00 81 1012.5
20260502170202 59 264 2.6 10.4 0.00 0.00 0.00 80 1012.5
20260502164241 60 245 1.7 8.7 0.00 0.00 0.00 80 1012.4
20260502164138 60 242 1.7 8.7 0.00 0.00 0.00 80 1012.4
20260502164123 60 229 2.6 8.7 0.00 0.00 0.00 80 1012.4
20260502163938 60 223 2.6 10.4 0.00 0.00 0.00 80 1012.5
20260502163907 60 245 2.6 10.4 0.00 0.00 0.00 81 1012.5
20260502163734 60 226 3.5 10.4 0.00 0.00 0.00 81 1012.4
20260502163632 60 250 3.5 10.4 0.00 0.00 0.00 81 1012.5
20260502163532 60 251 3.5 10.4 0.00 0.00 0.00 81 1012.4
20260502163430 60 267 3.5 10.4 0.00 0.00 0.00 80 1012.4
20260502163331 60 238 3.5 10.4 0.00 0.00 0.00 80 1012.4
20260502163257 60 217 3.5 10.4 0.00 0.00 0.00 80 1012.4
20260502163229 60 262 3.5 10.4 0.00 0.00 0.00 79 1012.3
20260502163128 60 218 3.5 10.4 0.00 0.00 0.00 79 1012.3
20260502163028 60 176 2.6 10.4 0.00 0.00 0.00 79 1012.3
20260502162927 60 245 2.6 7.0 0.00 0.00 0.00 79 1012.3
20260502162828 60 294 2.6 7.0 0.00 0.00 0.00 79 1012.3
20260502162756 60 230 2.6 7.0 0.00 0.00 0.00 79 1012.3
20260502162716 60 205 2.6 7.0 0.00 0.00 0.00 79 1012.3
20260502162616 60 226 2.6 7.0 0.00 0.00 0.00 79 1012.3
20260502162516 60 255 2.6 7.0 0.00 0.00 0.00 79 1012.3
20260502162416 60 229 3.5 7.8 0.00 0.00 0.00 79 1012.3
20260502162316 60 259 3.5 7.8 0.00 0.00 0.00 80 1012.3
20260502162255 60 236 3.5 7.8 0.00 0.00 0.00 80 1012.3
20260502162216 60 232 3.5 7.8 0.00 0.00 0.00 80 1012.3
20260502162116 60 235 3.5 7.8 0.00 0.00 0.00 80 1012.3
20260502162016 60 242 3.5 9.6 0.00 0.00 0.00 80 1012.3
20260502161916 60 172 3.5 9.6 0.00 0.00 0.00 80 1012.3
20260502161817 60 253 3.5 9.6 0.00 0.00 0.00 80 1012.3
20260502161757 60 182 3.5 9.6 0.00 0.00 0.00 80 1012.3
20260502161716 60 248 3.5 9.6 0.00 0.00 0.00 80 1012.3
20260502161617 60 210 3.5 9.6 0.00 0.00 0.00 79 1012.3
20260502161516 60 292 3.5 9.6 0.00 0.00 0.00 79 1012.3
20260502161416 60 248 3.5 9.6 0.00 0.00 0.00 80 1012.3
20260502161316 60 226 3.5 9.6 0.00 0.00 0.00 80 1012.3
20260502161258 60 236 3.5 9.6 0.00 0.00 0.00 80 1012.3
20260502161217 60 214 3.5 9.6 0.00 0.00 0.00 80 1012.3
20260502161116 60 259 3.5 9.6 0.00 0.00 0.00 79 1012.4
20260502161010 60 210 2.6 7.0 0.00 0.00 0.00 80 1012.3
20260502160910 60 241 2.6 7.0 0.00 0.00 0.00 79 1012.3
20260502160810 60 226 2.6 7.0 0.00 0.00 0.00 79 1012.2
20260502160749 60 228 2.6 7.0 0.00 0.00 0.00 79 1012.2
20260502160710 60 249 2.6 7.0 0.00 0.00 0.00 79 1012.2
20260502160610 60 219 2.6 7.0 0.00 0.00 0.00 79 1012.2
20260502160505 60 252 2.6 7.0 0.00 0.00 0.00 79 1012.3
20260502160404 60 232 2.6 7.0 0.00 0.00 0.00 79 1012.3
20260502160304 60 280 2.6 7.0 0.00 0.00 0.00 79 1012.3
20260502160245 60 210 1.7 7.0 0.00 0.00 0.00 80 1012.3
20260502160204 60 240 1.7 7.0 0.00 0.00 0.00 80 1012.3
20260502160104 60 229 1.7 7.0 0.00 0.00 0.00 80 1012.3
20260502152316 57 198 2.6 7.0 0.00 0.00 0.00 86 1011.9
20260502152234 57 219 2.6 7.0 0.00 0.00 0.00 86 1011.9
20260502152216 57 233 2.6 7.0 0.00 0.00 0.00 86 1011.9
20260502152115 57 228 3.5 7.0 0.00 0.00 0.00 86 1011.9
20260502152015 57 240 3.5 7.0 0.00 0.00 0.00 86 1011.9
20260502151953 57 233 2.6 6.1 0.00 0.00 0.00 86 1012.0
20260502151914 57 259 2.6 7.0 0.00 0.00 0.00 86 1012.0
20260502151843 57 289 2.6 7.0 0.00 0.00 0.00 86 1012.0
20260502151712 57 248 2.6 6.1 0.00 0.00 0.00 86 1012.0
20260502151612 57 224 2.6 8.7 0.00 0.00 0.00 86 1012.0
20260502151512 57 184 3.5 8.7 0.00 0.00 0.00 86 1012.0
20260502151413 56 245 2.6 8.7 0.00 0.00 0.00 86 1012.0
20260502151312 56 235 2.6 8.7 0.00 0.00 0.00 86 1012.0
20260502151232 56 228 2.6 8.7 0.00 0.00 0.00 86 1012.0
20260502151212 56 225 2.6 8.7 0.00 0.00 0.00 86 1012.0
20260502151112 56 236 2.6 8.7 0.00 0.00 0.00 86 1012.0
20260502151012 56 238 2.6 8.7 0.00 0.00 0.00 86 1012.0
20260502150951 56 236 2.6 8.7 0.00 0.00 0.00 86 1012.0
20260502150913 56 200 2.6 8.7 0.00 0.00 0.00 86 1012.0
20260502150842 56 177 2.6 8.7 0.00 0.00 0.00 86 1012.0
20260502150706 56 232 2.6 8.7 0.00 0.00 0.00 86 1012.0
20260502150605 56 188 2.6 7.0 0.00 0.00 0.00 87 1011.9
20260502150506 56 148 2.6 7.0 0.00 0.00 0.00 86 1011.9
20260502150406 56 233 2.6 7.0 0.00 0.00 0.00 86 1012.0
20260502150306 56 252 2.6 7.0 0.00 0.00 0.00 86 1011.9
20260502150231 56 252 1.7 7.0 0.00 0.00 0.00 86 1012.0
20260502150200 56 236 1.7 7.0 0.00 0.00 0.00 86 1012.0
20260502140107 54 240 1.7 8.7 0.00 0.00 0.00 88 1011.5
20260502130738 53 239 1.7 7.0 0.00 0.00 0.00 90 1011.0
20260502130727 53 219 1.7 7.0 0.00 0.00 0.00 90 1011.0
20260502130628 53 223 2.6 7.0 0.00 0.00 0.00 90 1010.9
20260502130526 53 231 2.6 7.0 0.00 0.00 0.00 90 1011.0
20260502130422 53 236 2.6 7.0 0.00 0.00 0.00 90 1011.0
20260502130320 53 235 1.7 7.0 0.00 0.00 0.00 90 1011.0
20260502130220 53 191 1.7 7.0 0.00 0.00 0.00 90 1011.0
20260502130200 53 250 1.7 7.0 0.00 0.00 0.00 90 1011.0
20260502130120 53 236 1.7 7.0 0.00 0.00 0.00 90 1011.0
20260502123806 53 200 0.9 3.5 0.00 0.00 0.00 91 1010.9
20260502123706 53 162 0.9 3.5 0.00 0.00 0.00 91 1010.9
20260502123630 53 200 0.9 3.5 0.00 0.00 0.00 91 1010.9
20260502123604 53 235 0.9 3.5 0.00 0.00 0.00 91 1010.9
20260502123504 53 232 1.7 3.5 0.00 0.00 0.00 91 1010.9
20260502123405 53 195 0.9 3.5 0.00 0.00 0.00 91 1010.9
20260502123304 53 231 0.9 3.5 0.00 0.00 0.00 91 1010.9
20260502123200 53 226 1.7 4.3 0.00 0.00 0.00 91 1010.8
20260502123126 53 228 1.7 4.3 0.00 0.00 0.00 91 1010.8
20260502123058 53 235 1.7 4.3 0.00 0.00 0.00 91 1010.8
20260502122958 53 203 1.7 4.3 0.00 0.00 0.00 91 1010.8
20260502122856 53 200 0.9 4.3 0.00 0.00 0.00 91 1010.8
20260502122756 53 236 0.9 4.3 0.00 0.00 0.00 91 1010.8
20260502122652 53 221 1.7 4.3 0.00 0.00 0.00 91 1010.8
20260502122626 53 217 0.9 4.3 0.00 0.00 0.00 91 1010.8
20260502122551 53 212 0.9 4.3 0.00 0.00 0.00 91 1010.8
20260502122450 53 225 0.9 4.3 0.00 0.00 0.00 91 1010.8
20260502122350 53 232 0.9 4.3 0.00 0.00 0.00 91 1010.8
20260502122248 53 187 0.9 4.3 0.00 0.00 0.00 91 1010.8
20260502122146 53 217 0.9 5.2 0.00 0.00 0.00 91 1010.8
20260502122126 53 150 0.9 5.2 0.00 0.00 0.00 91 1010.8
20260502122042 53 158 1.7 5.2 0.00 0.00 0.00 91 1010.8
20260502121942 53 158 1.7 5.2 0.00 0.00 0.00 91 1010.8
20260502121842 53 221 1.7 5.2 0.00 0.00 0.00 91 1010.7
20260502121742 53 217 1.7 5.2 0.00 0.00 0.00 91 1010.8
20260502121623 53 221 1.7 5.2 0.00 0.00 0.00 91 1010.7
20260502121540 53 221 1.7 5.2 0.00 0.00 0.00 91 1010.8
20260502121440 53 231 1.7 5.2 0.00 0.00 0.00 91 1010.7
20260502121338 53 214 1.7 5.2 0.00 0.00 0.00 91 1010.7
20260502121235 53 216 0.9 5.2 0.00 0.00 0.00 91 1010.8
20260502121146 53 243 0.9 3.5 0.00 0.00 0.00 91 1010.8
20260502121135 53 245 0.9 3.5 0.00 0.00 0.00 91 1010.8
20260502121030 53 226 0.9 3.5 0.00 0.00 0.00 91 1010.7
20260502120930 53 166 0.9 3.5 0.00 0.00 0.00 91 1010.7
20260502120830 53 207 0.9 3.5 0.00 0.00 0.00 91 1010.8
20260502120728 53 214 0.9 3.5 0.00 0.00 0.00 91 1010.8
20260502120624 53 207 0.9 3.5 0.00 0.00 0.00 91 1010.8
20260502120522 53 205 0.9 3.5 0.00 0.00 0.00 91 1010.8
20260502120422 53 205 0.9 3.5 0.00 0.00 0.00 91 1010.8
20260502120322 53 222 0.0 3.5 0.00 0.00 0.00 91 1010.7
20260502120223 53 221 0.0 1.7 0.00 0.00 0.00 91 1010.7
20260502120126 53 215 0.9 2.6 0.00 0.00 0.00 91 1010.8
20260502115920 53 192 0.0 4.3 0.00 0.00 0.00 91 1010.9
20260502115820 53 193 0.0 4.3 0.00 0.00 0.00 91 1010.9
20260502115752 53 193 0.0 4.3 0.00 0.00 0.00 91 1010.8
20260502115720 53 193 0.0 4.3 0.00 0.00 0.00 91 1010.8
20260502115620 53 195 0.0 4.3 0.00 0.00 0.00 91 1010.8
20260502115518 53 207 0.9 4.3 0.00 0.00 0.00 91 1010.8
20260502115418 53 207 0.9 4.3 0.00 0.00 0.00 91 1010.8
20260502115318 53 207 0.9 4.3 0.00 0.00 0.00 91 1010.8
20260502115218 53 207 0.9 4.3 0.00 0.00 0.00 91 1010.8
20260502115122 53 205 0.0 4.3 0.00 0.00 0.00 91 1010.8
20260502115115 53 239 0.0 4.3 0.00 0.00 0.00 91 1010.8
20260502115016 53 167 0.9 2.6 0.00 0.00 0.00 91 1010.8
20260502114912 53 167 0.9 2.6 0.00 0.00 0.00 91 1010.9
20260502114812 53 168 0.9 3.5 0.00 0.00 0.00 91 1010.9
20260502114712 53 154 0.9 3.5 0.00 0.00 0.00 91 1010.9
20260502114612 53 229 0.9 3.5 0.00 0.00 0.00 91 1010.9
20260502114512 53 229 0.9 3.5 0.00 0.00 0.00 91 1010.8
20260502114412 53 195 0.9 3.5 0.00 0.00 0.00 91 1010.9
20260502114311 53 195 0.9 3.5 0.00 0.00 0.00 91 1010.9
20260502114210 53 184 0.9 3.5 0.00 0.00 0.00 91 1010.8
20260502114121 53 215 0.9 3.5 0.00 0.00 0.00 91 1010.9
20260502114110 53 216 0.9 3.5 0.00 0.00 0.00 91 1010.9
20260502113911 53 136 0.9 3.5 0.00 0.00 0.00 91 1010.9
20260502113811 53 200 0.9 2.6 0.00 0.00 0.00 91 1010.9
20260502113708 53 207 0.9 5.2 0.00 0.00 0.00 91 1010.9
20260502113618 53 191 0.9 5.2 0.00 0.00 0.00 91 1010.9
20260502113508 53 226 0.9 5.2 0.00 0.00 0.00 91 1010.9
20260502113408 53 226 0.9 5.2 0.00 0.00 0.00 91 1010.9
20260502113307 53 229 0.9 5.2 0.00 0.00 0.00 91 1010.9
20260502113208 53 229 1.7 5.2 0.00 0.00 0.00 91 1011.0
20260502113119 53 229 1.7 5.2 0.00 0.00 0.00 91 1011.0
20260502113106 53 230 1.7 5.2 0.00 0.00 0.00 91 1011.0
20260502113006 53 229 1.7 5.2 0.00 0.00 0.00 91 1010.9
20260502112906 53 228 1.7 5.2 0.00 0.00 0.00 91 1011.0
20260502112806 53 221 1.7 5.2 0.00 0.00 0.00 91 1011.0
20260502112706 53 144 0.9 2.6 0.00 0.00 0.00 91 1011.1
20260502112619 53 203 0.9 2.6 0.00 0.00 0.00 91 1011.1
20260502112607 53 200 0.9 2.6 0.00 0.00 0.00 91 1011.1
20260502112501 53 226 0.9 2.6 0.00 0.00 0.00 91 1011.1
20260502112400 53 214 0.9 2.6 0.00 0.00 0.00 91 1011.0
20260502112300 53 146 0.9 5.2 0.00 0.00 0.00 91 1011.1
20260502112201 53 161 0.9 5.2 0.00 0.00 0.00 91 1011.0
20260502112117 53 221 0.9 5.2 0.00 0.00 0.00 91 1011.1
20260502112100 53 221 0.9 5.2 0.00 0.00 0.00 91 1011.1
20260502112000 53 217 0.9 5.2 0.00 0.00 0.00 91 1011.1
20260502111900 53 144 0.9 5.2 0.00 0.00 0.00 91 1011.0
20260502111800 53 217 0.9 5.2 0.00 0.00 0.00 91 1011.1
20260502111701 53 215 0.9 5.2 0.00 0.00 0.00 91 1011.1
20260502111615 53 228 0.9 5.2 0.00 0.00 0.00 90 1011.1
20260502111600 53 228 0.9 5.2 0.00 0.00 0.00 90 1011.1
20260502111500 54 248 1.7 5.2 0.00 0.00 0.00 90 1011.1
20260502111400 54 248 1.7 5.2 0.00 0.00 0.00 91 1011.0
20260502111259 54 246 1.7 4.3 0.00 0.00 0.00 90 1011.0
20260502111200 54 177 1.7 4.3 0.00 0.00 0.00 90 1011.0
20260502111117 54 203 1.7 4.3 0.00 0.00 0.00 90 1011.0
20260502111100 54 203 1.7 4.3 0.00 0.00 0.00 90 1011.0
20260502111001 54 214 0.9 4.3 0.00 0.00 0.00 90 1011.0
20260502110901 54 223 0.9 4.3 0.00 0.00 0.00 90 1011.0
20260502110758 54 200 0.9 5.2 0.00 0.00 0.00 90 1011.0
20260502110658 54 204 0.9 5.2 0.00 0.00 0.00 90 1011.0
20260502110616 54 215 0.9 5.2 0.00 0.00 0.00 90 1011.0
20260502110559 54 216 0.9 5.2 0.00 0.00 0.00 90 1011.0
20260502110458 54 226 0.9 5.2 0.00 0.00 0.00 90 1011.0
20260502110358 54 226 0.9 5.2 0.00 0.00 0.00 90 1011.0
20260502110258 54 214 0.9 5.2 0.00 0.00 0.00 90 1011.1
20260502110158 54 198 0.9 5.2 0.00 0.00 0.00 90 1011.0
20260502110115 54 195 0.9 5.2 0.00 0.00 0.00 90 1011.0
20260502110058 54 195 0.9 5.2 0.00 0.00 0.00 90 1011.0
20260502105958 54 228 0.9 5.2 0.00 0.00 0.00 90 1011.0
20260502105858 54 226 1.7 5.2 0.00 0.00 0.00 90 1011.0
20260502105758 54 170 1.7 4.3 0.00 0.00 0.00 90 1011.0
20260502105658 54 193 1.7 4.3 0.00 0.00 0.00 90 1011.0
20260502105617 54 183 1.7 4.3 0.00 0.00 0.00 90 1010.9
20260502105558 54 183 1.7 4.3 0.00 0.00 0.00 90 1010.9
20260502105458 54 226 1.7 4.3 0.00 0.00 0.00 90 1010.9
20260502105352 54 161 1.7 4.3 0.00 0.00 0.00 90 1011.0
20260502105252 54 236 1.7 4.3 0.00 0.00 0.00 90 1010.9
20260502105149 54 237 1.7 4.3 0.00 0.00 0.00 90 1011.0
20260502105121 54 236 1.7 5.2 0.00 0.00 0.00 90 1011.0
20260502105050 54 236 1.7 5.2 0.00 0.00 0.00 90 1011.0
20260502104950 54 233 1.7 5.2 0.00 0.00 0.00 90 1011.0
20260502104844 54 249 1.7 5.2 0.00 0.00 0.00 90 1011.0
20260502104744 54 204 1.7 5.2 0.00 0.00 0.00 90 1011.0
20260502104644 54 248 1.7 5.2 0.00 0.00 0.00 90 1011.0
20260502104614 54 176 1.7 5.2 0.00 0.00 0.00 90 1011.0
20260502104544 54 197 1.7 5.2 0.00 0.00 0.00 90 1011.0
20260502104443 54 248 1.7 5.2 0.00 0.00 0.00 90 1011.0
20260502104338 54 243 1.7 5.2 0.00 0.00 0.00 89 1011.0
20260502104237 54 235 1.7 5.2 0.00 0.00 0.00 89 1011.0
20260502104138 54 239 1.7 5.2 0.00 0.00 0.00 89 1011.0
20260502104113 54 236 1.7 5.2 0.00 0.00 0.00 89 1011.0
20260502104038 54 259 1.7 5.2 0.00 0.00 0.00 89 1011.0
20260502103938 54 257 1.7 5.2 0.00 0.00 0.00 89 1011.1
20260502103839 54 226 1.7 5.2 0.00 0.00 0.00 89 1011.0
20260502103738 54 225 1.7 4.3 0.00 0.00 0.00 89 1011.0
20260502103638 54 232 1.7 4.3 0.00 0.00 0.00 89 1011.0
20260502103613 54 243 1.7 4.3 0.00 0.00 0.00 89 1011.0
20260502103538 54 225 0.9 4.3 0.00 0.00 0.00 89 1011.0
20260502103438 54 228 0.9 4.3 0.00 0.00 0.00 89 1011.0
20260502103338 54 195 0.9 4.3 0.00 0.00 0.00 89 1011.0
20260502103238 54 212 0.9 4.3 0.00 0.00 0.00 89 1011.0
20260502103138 54 216 0.9 4.3 0.00 0.00 0.00 89 1011.0
20260502103112 54 229 0.9 4.3 0.00 0.00 0.00 89 1011.0
20260502103039 54 229 0.9 4.3 0.00 0.00 0.00 89 1010.9
20260502102938 54 229 0.9 4.3 0.00 0.00 0.00 89 1010.9
20260502102838 54 243 0.9 4.3 0.00 0.00 0.00 89 1011.0
20260502102739 54 219 0.9 2.6 0.00 0.00 0.00 89 1011.0
20260502102638 54 221 0.9 2.6 0.00 0.00 0.00 88 1011.0
20260502102610 54 248 0.9 2.6 0.00 0.00 0.00 88 1011.0
20260502102538 54 248 0.9 2.6 0.00 0.00 0.00 88 1011.0
20260502102437 54 248 0.9 2.6 0.00 0.00 0.00 88 1011.0
20260502102336 54 248 0.9 2.6 0.00 0.00 0.00 88 1011.0
20260502102235 54 248 0.9 2.6 0.00 0.00 0.00 88 1011.1
20260502102136 54 171 0.9 2.6 0.00 0.00 0.00 88 1011.0
20260502102110 54 214 0.9 2.6 0.00 0.00 0.00 88 1011.0
20260502102036 54 238 0.9 2.6 0.00 0.00 0.00 88 1011.1
20260502101936 54 223 0.9 2.6 0.00 0.00 0.00 88 1011.1
20260502101836 54 232 0.9 3.5 0.00 0.00 0.00 88 1011.0
20260502101735 54 235 0.9 3.5 0.00 0.00 0.00 88 1011.0
20260502101611 54 212 0.9 3.5 0.00 0.00 0.00 88 1011.0
20260502101534 55 212 0.9 3.5 0.00 0.00 0.00 88 1011.0
20260502101433 55 212 1.7 3.5 0.00 0.00 0.00 88 1011.0
20260502101334 55 212 1.7 3.5 0.00 0.00 0.00 87 1011.0
20260502101230 55 228 1.7 3.5 0.00 0.00 0.00 87 1011.0
20260502101130 55 231 1.7 3.5 0.00 0.00 0.00 87 1011.0
20260502101108 55 210 1.7 3.5 0.00 0.00 0.00 87 1011.0
20260502101030 55 216 1.7 3.5 0.00 0.00 0.00 87 1011.0
20260502100929 55 231 1.7 3.5 0.00 0.00 0.00 87 1011.0
20260502100828 55 234 1.7 3.5 0.00 0.00 0.00 87 1011.0
20260502100728 55 208 1.7 3.5 0.00 0.00 0.00 87 1010.9
20260502100628 55 230 1.7 3.5 0.00 0.00 0.00 87 1010.9
20260502100607 55 229 1.7 3.5 0.00 0.00 0.00 87 1010.9
20260502100528 55 229 1.7 3.5 0.00 0.00 0.00 87 1011.0
20260502100428 55 217 1.7 3.5 0.00 0.00 0.00 87 1010.9
20260502100332 55 160 1.7 3.5 0.00 0.00 0.00 86 1010.9
20260502100328 55 134 1.7 3.5 0.00 0.00 0.00 87 1010.9
20260502100232 55 219 1.7 3.5 0.00 0.00 0.00 87 1010.9
20260502100224 55 236 1.7 3.5 0.00 0.00 0.00 86 1010.9
20260502091517 55 132 0.0 1.7 0.00 0.00 0.00 86 1011.2
20260502091418 55 132 0.0 1.7 0.00 0.00 0.00 86 1011.1
20260502091318 55 132 0.0 1.7 0.00 0.00 0.00 86 1011.2
20260502091219 55 132 0.0 1.7 0.00 0.00 0.00 86 1011.2
20260502091103 55 132 0.0 1.7 0.00 0.00 0.00 86 1011.2
20260502091014 55 132 0.0 1.7 0.00 0.00 0.00 86 1011.2
20260502090914 55 132 0.0 1.7 0.00 0.00 0.00 86 1011.2
20260502090814 55 142 0.0 0.9 0.00 0.00 0.00 86 1011.2
20260502090714 55 143 0.0 0.9 0.00 0.00 0.00 86 1011.2
20260502090604 55 143 0.0 0.0 0.00 0.00 0.00 86 1011.2
20260502090514 55 143 0.0 0.0 0.00 0.00 0.00 86 1011.2
20260502090414 55 143 0.0 0.0 0.00 0.00 0.00 86 1011.2
20260502090314 55 144 0.0 0.0 0.00 0.00 0.00 85 1011.2
20260502090214 55 142 0.0 0.0 0.00 0.00 0.00 85 1011.2
20260502090119 55 143 0.0 0.0 0.00 0.00 0.00 85 1011.2
20260502090109 56 142 0.0 0.0 0.00 0.00 0.00 85 1011.2
20260502071450 58 120 0.9 1.7 0.00 0.00 0.00 83 1011.4
20260502071350 58 118 0.0 1.7 0.00 0.00 0.00 83 1011.3
20260502071250 58 131 0.0 1.7 0.00 0.00 0.00 83 1011.3
20260502071150 58 145 0.0 1.7 0.00 0.00 0.00 82 1011.3
20260502071050 58 145 0.0 1.7 0.00 0.00 0.00 82 1011.3
20260502070950 58 145 0.0 1.7 0.00 0.00 0.00 82 1011.3
20260502070850 58 186 0.0 2.6 0.00 0.00 0.00 82 1011.3
20260502070824 58 219 0.9 2.6 0.00 0.00 0.00 82 1011.3
20260502070750 58 186 0.9 2.6 0.00 0.00 0.00 82 1011.3
20260502070710 58 181 0.9 2.6 0.00 0.00 0.00 82 1011.3
20260502070551 58 219 0.9 2.6 0.00 0.00 0.00 82 1011.3
20260502070450 58 219 0.9 2.6 0.00 0.00 0.00 82 1011.3
20260502070346 58 219 0.9 2.6 0.00 0.00 0.00 82 1011.3
20260502070246 58 219 0.9 2.6 0.00 0.00 0.00 82 1011.3
20260502070145 59 221 0.9 2.6 0.00 0.00 0.00 82 1011.3
20260502070107 59 221 0.9 3.5 0.00 0.00 0.00 82 1011.3
20260502070046 59 168 0.9 3.5 0.00 0.00 0.00 82 1011.2
20260502065947 59 194 1.7 5.2 0.00 0.00 0.00 82 1011.3
20260502065846 59 165 1.7 5.2 0.00 0.00 0.00 82 1011.2
20260502065746 59 155 1.7 5.2 0.00 0.00 0.00 82 1011.2
20260502065647 59 219 1.7 5.2 0.00 0.00 0.00 82 1011.2
20260502065546 59 210 1.7 5.2 0.00 0.00 0.00 82 1011.2
20260502065446 59 193 1.7 5.2 0.00 0.00 0.00 82 1011.2
20260502065345 59 193 1.7 5.2 0.00 0.00 0.00 82 1011.2
20260502065244 59 200 1.7 5.2 0.00 0.00 0.00 82 1011.2
20260502065138 59 228 0.9 5.2 0.00 0.00 0.00 82 1011.2
20260502065100 59 229 0.9 5.2 0.00 0.00 0.00 82 1011.2
20260502065039 59 231 0.9 5.2 0.00 0.00 0.00 82 1011.2
20260502064938 59 223 0.9 4.3 0.00 0.00 0.00 82 1011.2
20260502064838 59 235 0.0 4.3 0.00 0.00 0.00 82 1011.2
20260502064739 59 217 0.0 2.6 0.00 0.00 0.00 82 1011.2
20260502064636 59 219 0.0 1.7 0.00 0.00 0.00 82 1011.2
20260502064536 59 160 0.0 1.7 0.00 0.00 0.00 82 1011.2
20260502064436 59 161 0.0 1.7 0.00 0.00 0.00 82 1011.2
20260502064335 59 160 0.0 1.7 0.00 0.00 0.00 82 1011.2
20260502064309 59 211 0.0 0.9 0.00 0.00 0.00 82 1011.2
20260502064233 59 117 0.0 0.9 0.00 0.00 0.00 82 1011.2
20260502064158 59 117 0.0 0.9 0.00 0.00 0.00 82 1011.2
20260502064026 59 212 0.0 0.9 0.00 0.00 0.00 82 1011.2
20260502063926 59 211 0.0 0.9 0.00 0.00 0.00 82 1011.2
20260502063826 59 212 0.0 0.9 0.00 0.00 0.00 82 1011.2
20260502063727 59 211 0.0 0.9 0.00 0.00 0.00 82 1011.2
20260502063627 59 175 0.0 0.9 0.00 0.00 0.00 82 1011.2
20260502063525 59 175 0.0 1.7 0.00 0.00 0.00 82 1011.2
20260502063424 59 133 0.0 1.7 0.00 0.00 0.00 81 1011.2
20260502063322 59 132 0.0 1.7 0.00 0.00 0.00 82 1011.2
20260502063220 59 134 0.0 1.7 0.00 0.00 0.00 82 1011.2
20260502063121 59 134 0.0 1.7 0.00 0.00 0.00 81 1011.2
20260502063018 59 134 0.0 1.7 0.00 0.00 0.00 81 1011.1
20260502062923 59 146 0.0 1.7 0.00 0.00 0.00 81 1011.2
20260502062816 60 146 0.0 1.7 0.00 0.00 0.00 81 1011.2
20260502062714 60 146 0.0 1.7 0.00 0.00 0.00 81 1011.2
20260502062614 60 133 0.0 1.7 0.00 0.00 0.00 81 1011.2
20260502062512 60 132 0.0 1.7 0.00 0.00 0.00 81 1011.1
20260502062412 60 132 0.0 0.9 0.00 0.00 0.00 81 1011.1
20260502062310 60 132 0.0 0.9 0.00 0.00 0.00 81 1011.1
20260502062208 60 132 0.0 1.7 0.00 0.00 0.00 80 1011.1
20260502062106 60 132 0.0 1.7 0.00 0.00 0.00 80 1011.1
20260502062028 60 133 0.9 1.7 0.00 0.00 0.00 80 1011.1
20260502062006 60 132 0.9 1.7 0.00 0.00 0.00 80 1011.1
20260502061906 60 133 0.9 3.5 0.00 0.00 0.00 80 1011.1
20260502061805 60 132 0.9 3.5 0.00 0.00 0.00 80 1011.1
20260502061752 60 225 0.9 4.3 0.00 0.00 0.00 80 1011.1
20260502061702 60 132 0.9 3.5 0.00 0.00 0.00 80 1011.1
20260502061558 60 151 0.9 4.3 0.00 0.00 0.00 80 1011.1
20260502061457 60 225 0.9 4.3 0.00 0.00 0.00 80 1011.1
20260502061356 60 225 1.7 4.3 0.00 0.00 0.00 80 1011.1
20260502061300 60 221 1.7 4.3 0.00 0.00 0.00 80 1011.1
20260502061251 60 210 1.7 6.1 0.00 0.00 0.00 80 1011.1
20260502061157 60 223 1.7 6.1 0.00 0.00 0.00 80 1011.1
20260502061136 60 228 1.7 6.1 0.00 0.00 0.00 80 1011.1
20260502060954 60 219 1.7 6.1 0.00 0.00 0.00 79 1011.1
20260502060854 60 229 1.7 6.1 0.00 0.00 0.00 79 1011.1
20260502060752 60 229 1.7 6.1 0.00 0.00 0.00 79 1011.0
20260502060650 60 248 1.7 6.1 0.00 0.00 0.00 79 1011.0
20260502060525 60 236 1.7 6.1 0.00 0.00 0.00 79 1011.0
20260502060444 60 233 1.7 6.1 0.00 0.00 0.00 79 1011.1
20260502060344 61 237 1.7 6.1 0.00 0.00 0.00 79 1011.1
20260502060245 61 245 1.7 6.1 0.00 0.00 0.00 79 1011.1
20260502060144 61 193 1.7 6.1 0.00 0.00 0.00 79 1011.1
20260502060044 61 225 1.7 6.1 0.00 0.00 0.00 79 1011.1
20260502060026 61 219 1.7 6.1 0.00 0.00 0.00 79 1011.1
20260502055942 61 229 1.7 6.1 0.00 0.00 0.00 79 1011.1
20260502055842 61 234 1.7 6.1 0.00 0.00 0.00 79 1011.1
20260502055741 61 217 1.7 6.1 0.00 0.00 0.00 79 1011.0
20260502055640 61 222 1.7 6.1 0.00 0.00 0.00 79 1011.1
20260502055534 61 235 1.7 6.1 0.00 0.00 0.00 79 1011.1
20260502055524 61 250 1.7 6.1 0.00 0.00 0.00 79 1011.1
20260502055432 61 204 1.7 6.1 0.00 0.00 0.00 79 1011.0
20260502055333 61 194 1.7 6.1 0.00 0.00 0.00 79 1011.1
20260502055232 61 230 1.7 6.1 0.00 0.00 0.00 79 1011.1
20260502055132 61 135 1.7 6.1 0.00 0.00 0.00 79 1011.1
20260502055022 61 217 1.7 6.1 0.00 0.00 0.00 79 1011.1
20260502054926 61 211 1.7 6.1 0.00 0.00 0.00 79 1011.1
20260502054826 61 232 1.7 6.1 0.00 0.00 0.00 79 1011.1
20260502054745 61 226 1.7 7.0 0.00 0.00 0.00 79 1011.1
20260502054728 61 204 1.7 7.0 0.00 0.00 0.00 79 1011.1
20260502054642 61 227 1.7 7.0 0.00 0.00 0.00 79 1011.1
20260502054632 61 226 1.7 7.0 0.00 0.00 0.00 79 1011.1
20260502054424 61 249 1.7 7.0 0.00 0.00 0.00 79 1011.1
20260502054322 61 232 2.6 7.0 0.00 0.00 0.00 79 1011.0
20260502054223 61 238 2.6 7.0 0.00 0.00 0.00 79 1011.1
20260502054120 61 222 2.6 7.0 0.00 0.00 0.00 79 1011.1
20260502054036 61 228 2.6 7.0 0.00 0.00 0.00 79 1011.1
20260502053914 61 240 2.6 7.0 0.00 0.00 0.00 79 1011.1
20260502053814 62 217 2.6 7.0 0.00 0.00 0.00 79 1011.0
20260502053715 62 253 2.6 7.0 0.00 0.00 0.00 79 1011.1
20260502053614 62 205 2.6 7.0 0.00 0.00 0.00 79 1011.1
20260502053520 62 218 3.5 9.6 0.00 0.00 0.00 79 1011.1
20260502053510 62 239 3.5 9.6 0.00 0.00 0.00 79 1011.1
20260502053408 62 200 3.5 9.6 0.00 0.00 0.00 79 1011.1
20260502053308 62 238 3.5 9.6 0.00 0.00 0.00 78 1011.1
20260502053208 62 232 3.5 9.6 0.00 0.00 0.00 78 1011.1
20260502053108 62 155 3.5 9.6 0.00 0.00 0.00 78 1011.1
20260502053021 62 219 3.5 9.6 0.00 0.00 0.00 78 1011.1
20260502053004 62 217 3.5 9.6 0.00 0.00 0.00 78 1011.1
20260502052903 62 226 3.5 9.6 0.00 0.00 0.00 78 1011.1
20260502052802 62 242 3.5 9.6 0.00 0.00 0.00 78 1011.1
20260502052745 62 233 2.6 8.7 0.00 0.00 0.00 78 1011.1
20260502052702 62 240 3.5 9.6 0.00 0.00 0.00 78 1011.1
20260502052630 62 210 3.5 9.6 0.00 0.00 0.00 78 1011.1
20260502052457 62 208 2.6 8.7 0.00 0.00 0.00 78 1011.1
20260502052356 62 246 2.6 7.8 0.00 0.00 0.00 78 1011.1
20260502052256 62 174 2.6 7.8 0.00 0.00 0.00 78 1011.0
20260502052156 62 243 2.6 7.8 0.00 0.00 0.00 78 1011.1
20260502052056 62 253 2.6 7.8 0.00 0.00 0.00 78 1011.0
20260502052019 62 240 2.6 7.8 0.00 0.00 0.00 78 1011.0
20260502051950 62 240 2.6 7.8 0.00 0.00 0.00 78 1011.0
20260502051850 62 228 2.6 7.8 0.00 0.00 0.00 78 1011.0
20260502051750 62 225 2.6 7.8 0.00 0.00 0.00 78 1011.0
20260502051651 62 228 2.6 7.8 0.00 0.00 0.00 78 1011.0
20260502051550 62 250 2.6 7.8 0.00 0.00 0.00 78 1011.0
20260502051519 62 237 2.6 7.8 0.00 0.00 0.00 78 1011.0
20260502051444 62 217 3.5 7.8 0.00 0.00 0.00 78 1011.0
20260502051344 62 211 3.5 7.8 0.00 0.00 0.00 77 1011.0
20260502051252 62 234 3.5 7.8 0.00 0.00 0.00 77 1011.0
20260502051245 62 236 3.5 7.8 0.00 0.00 0.00 77 1011.0
20260502051144 62 229 3.5 7.8 0.00 0.00 0.00 77 1011.0
20260502051129 62 238 3.5 7.8 0.00 0.00 0.00 77 1011.0
20260502050943 63 228 3.5 7.8 0.00 0.00 0.00 77 1011.0
20260502050843 63 232 3.5 7.8 0.00 0.00 0.00 77 1011.0
20260502050742 63 190 3.5 7.8 0.00 0.00 0.00 77 1011.0
20260502050642 63 233 3.5 7.8 0.00 0.00 0.00 77 1010.9
20260502050543 63 203 3.5 7.8 0.00 0.00 0.00 77 1010.9
20260502050528 63 223 3.5 7.8 0.00 0.00 0.00 77 1010.9
20260502050443 63 242 3.5 7.8 0.00 0.00 0.00 77 1011.0
20260502050342 63 264 3.5 8.7 0.00 0.00 0.00 77 1011.0
20260502050242 63 224 3.5 8.7 0.00 0.00 0.00 77 1011.0
20260502050144 63 236 3.5 8.7 0.00 0.00 0.00 77 1011.0
20260502050043 63 245 3.5 8.7 0.00 0.00 0.00 77 1010.9
20260502050017 63 237 3.5 8.7 0.00 0.00 0.00 77 1010.9
20260502045944 63 229 3.5 8.7 0.00 0.00 0.00 77 1010.9
20260502045842 63 212 3.5 8.7 0.00 0.00 0.00 77 1010.9
20260502045744 63 232 3.5 8.7 0.00 0.00 0.00 77 1011.0
20260502045642 63 246 3.5 8.7 0.00 0.00 0.00 77 1011.0
20260502045542 63 224 3.5 8.7 0.00 0.00 0.00 76 1011.0
20260502045518 63 248 3.5 8.7 0.00 0.00 0.00 76 1011.0
20260502045442 63 233 3.5 8.7 0.00 0.00 0.00 76 1011.0
20260502045344 63 255 3.5 7.0 0.00 0.00 0.00 77 1011.0
20260502045244 64 239 3.5 7.0 0.00 0.00 0.00 76 1010.9
20260502045237 63 243 3.5 7.0 0.00 0.00 0.00 77 1011.0
20260502045226 64 235 3.5 7.8 0.00 0.00 0.00 76 1010.9
20260502045137 64 266 3.5 7.0 0.00 0.00 0.00 76 1011.0
20260502045127 64 228 3.5 7.0 0.00 0.00 0.00 76 1010.9
20260502044936 64 262 3.5 7.0 0.00 0.00 0.00 76 1010.9
20260502044849 64 246 3.5 7.8 0.00 0.00 0.00 76 1011.0
20260502044733 64 226 3.5 7.8 0.00 0.00 0.00 76 1011.0
20260502044630 64 236 3.5 7.8 0.00 0.00 0.00 76 1010.9
20260502044620 64 232 3.5 7.8 0.00 0.00 0.00 76 1010.9
20260502044431 64 225 3.5 7.8 0.00 0.00 0.00 76 1010.9
20260502044330 64 235 3.5 7.8 0.00 0.00 0.00 76 1010.9
20260502044227 64 236 3.5 7.8 0.00 0.00 0.00 76 1010.9
20260502044124 64 224 3.5 7.8 0.00 0.00 0.00 76 1010.9
20260502044024 64 229 3.5 7.8 0.00 0.00 0.00 76 1010.8
20260502044005 64 219 3.5 7.8 0.00 0.00 0.00 76 1010.8
20260502043925 64 217 3.5 7.8 0.00 0.00 0.00 75 1010.9
20260502043825 64 240 3.5 7.8 0.00 0.00 0.00 76 1010.9
20260502043723 64 219 3.5 7.8 0.00 0.00 0.00 75 1010.9
20260502043622 64 239 3.5 7.8 0.00 0.00 0.00 75 1010.9
20260502043522 65 228 3.5 7.8 0.00 0.00 0.00 75 1010.9
20260502043458 65 212 3.5 7.8 0.00 0.00 0.00 75 1010.9
20260502043420 65 212 3.5 7.8 0.00 0.00 0.00 75 1010.8
20260502043319 65 242 3.5 7.8 0.00 0.00 0.00 75 1010.9
20260502043213 65 228 3.5 7.8 0.00 0.00 0.00 75 1010.8
20260502043112 65 256 3.5 7.8 0.00 0.00 0.00 75 1010.8
20260502043012 65 250 3.5 7.8 0.00 0.00 0.00 75 1010.8
20260502042952 65 226 3.5 7.8 0.00 0.00 0.00 75 1010.8
20260502042912 65 250 3.5 7.8 0.00 0.00 0.00 75 1010.8
20260502042813 65 242 3.5 7.8 0.00 0.00 0.00 75 1010.8
20260502042706 65 250 3.5 7.0 0.00 0.00 0.00 75 1010.8
20260502042606 65 231 3.5 7.0 0.00 0.00 0.00 75 1010.8
20260502042507 65 253 2.6 7.0 0.00 0.00 0.00 75 1010.8
20260502042447 65 248 2.6 7.0 0.00 0.00 0.00 75 1010.7
20260502042407 65 240 2.6 7.0 0.00 0.00 0.00 75 1010.7
20260502042306 65 218 2.6 7.0 0.00 0.00 0.00 75 1010.7
20260502042202 65 225 2.6 7.0 0.00 0.00 0.00 74 1010.7
20260502042101 65 264 2.6 6.1 0.00 0.00 0.00 75 1010.7
20260502042000 66 231 2.6 7.8 0.00 0.00 0.00 74 1010.7
20260502041941 66 200 2.6 7.8 0.00 0.00 0.00 74 1010.7
20260502041900 66 240 2.6 7.8 0.00 0.00 0.00 74 1010.7
20260502041800 66 236 2.6 7.8 0.00 0.00 0.00 74 1010.6
20260502041654 66 230 2.6 8.7 0.00 0.00 0.00 74 1010.7
20260502041554 66 217 2.6 8.7 0.00 0.00 0.00 74 1010.6
20260502041454 66 222 2.6 8.7 0.00 0.00 0.00 74 1010.6
20260502041433 66 235 2.6 8.7 0.00 0.00 0.00 74 1010.7
20260502041354 66 243 2.6 8.7 0.00 0.00 0.00 74 1010.7
20260502041254 66 222 3.5 8.7 0.00 0.00 0.00 74 1010.6
20260502041148 66 269 3.5 8.7 0.00 0.00 0.00 74 1010.6
20260502041128 66 257 3.5 8.7 0.00 0.00 0.00 73 1010.6
20260502041055 66 268 3.5 8.7 0.00 0.00 0.00 73 1010.6
20260502041047 66 224 3.5 8.7 0.00 0.00 0.00 73 1010.7
20260502041036 66 245 3.5 8.7 0.00 0.00 0.00 73 1010.7
20260502040848 66 259 3.5 8.7 0.00 0.00 0.00 73 1010.7
20260502040757 66 225 3.5 8.7 0.00 0.00 0.00 73 1010.7
20260502040642 66 217 3.5 8.7 0.00 0.00 0.00 73 1010.6
20260502040543 66 212 3.5 8.7 0.00 0.00 0.00 73 1010.6
20260502040533 66 241 3.5 8.7 0.00 0.00 0.00 73 1010.6
20260502040342 66 241 3.5 8.7 0.00 0.00 0.00 73 1010.6
20260502040242 67 248 3.5 8.7 0.00 0.00 0.00 73 1010.6
20260502040143 67 262 2.6 7.0 0.00 0.00 0.00 73 1010.5
20260502040137 67 274 3.5 8.7 0.00 0.00 0.00 73 1010.4
20260502040038 67 208 3.5 8.7 0.00 0.00 0.00 73 1010.4
20260502040029 67 238 2.6 8.7 0.00 0.00 0.00 73 1010.5
20260502035836 67 240 3.5 7.0 0.00 0.00 0.00 73 1010.4
20260502035736 67 243 2.6 7.0 0.00 0.00 0.00 72 1010.4
20260502035639 67 174 3.5 7.0 0.00 0.00 0.00 72 1010.4
20260502035630 67 226 3.5 7.0 0.00 0.00 0.00 72 1010.4
20260502035531 67 233 3.5 7.0 0.00 0.00 0.00 72 1010.4
20260502035523 67 223 3.5 7.0 0.00 0.00 0.00 72 1010.4
20260502035331 67 235 3.5 7.0 0.00 0.00 0.00 72 1010.4
20260502035230 67 239 3.5 7.0 0.00 0.00 0.00 72 1010.3
20260502035131 68 250 3.5 7.0 0.00 0.00 0.00 71 1010.3
20260502035125 68 236 3.5 7.0 0.00 0.00 0.00 72 1010.3
20260502035032 68 242 3.5 7.0 0.00 0.00 0.00 71 1010.3
20260502035024 68 263 3.5 7.0 0.00 0.00 0.00 71 1010.3
20260502034824 68 259 3.5 7.0 0.00 0.00 0.00 71 1010.3
20260502034727 68 240 3.5 7.0 0.00 0.00 0.00 71 1010.3
20260502034620 68 226 3.5 7.0 0.00 0.00 0.00 71 1010.3
20260502034519 68 240 3.5 9.6 0.00 0.00 0.00 70 1010.2
20260502034418 68 250 3.5 9.6 0.00 0.00 0.00 70 1010.3
20260502034358 69 256 3.5 9.6 0.00 0.00 0.00 70 1010.3
20260502034319 69 233 2.6 9.6 0.00 0.00 0.00 70 1010.3
20260502034218 69 243 3.5 9.6 0.00 0.00 0.00 70 1010.2
20260502034112 69 222 3.5 9.6 0.00 0.00 0.00 70 1010.2
20260502034012 69 219 3.5 9.6 0.00 0.00 0.00 70 1010.2
20260502033912 69 240 3.5 9.6 0.00 0.00 0.00 69 1010.2
20260502033855 69 222 3.5 9.6 0.00 0.00 0.00 69 1010.2
20260502033812 69 221 3.5 9.6 0.00 0.00 0.00 69 1010.2
20260502033712 69 188 3.5 9.6 0.00 0.00 0.00 69 1010.2
20260502033608 69 226 3.5 9.6 0.00 0.00 0.00 69 1010.2
20260502033510 69 250 2.6 7.0 0.00 0.00 0.00 69 1010.2
20260502033409 69 246 2.6 7.0 0.00 0.00 0.00 69 1010.1
20260502033347 69 231 2.6 7.0 0.00 0.00 0.00 69 1010.1
20260502033309 69 242 2.6 7.8 0.00 0.00 0.00 69 1010.1
20260502033100 70 246 2.6 7.8 0.00 0.00 0.00 68 1010.0
20260502033000 70 241 2.6 7.8 0.00 0.00 0.00 68 1010.0
20260502032900 70 215 2.6 7.8 0.00 0.00 0.00 68 1010.0
20260502032840 70 245 2.6 7.8 0.00 0.00 0.00 68 1010.0
20260502032800 70 222 2.6 7.8 0.00 0.00 0.00 68 1010.0
20260502032700 70 236 3.5 7.8 0.00 0.00 0.00 68 1010.0
20260502032554 70 236 3.5 7.8 0.00 0.00 0.00 68 1010.0
20260502032455 70 235 3.5 7.8 0.00 0.00 0.00 67 1010.0
20260502032354 70 246 3.5 7.8 0.00 0.00 0.00 67 1010.0
20260502032335 70 203 3.5 7.8 0.00 0.00 0.00 67 1010.0
20260502032254 70 253 3.5 7.8 0.00 0.00 0.00 67 1010.0
20260502032154 70 235 3.5 7.8 0.00 0.00 0.00 67 1010.0
20260502032059 71 243 3.5 7.8 0.00 0.00 0.00 67 1009.9
20260502032050 70 264 3.5 7.8 0.00 0.00 0.00 68 1009.9
20260502031950 70 232 3.5 7.8 0.00 0.00 0.00 67 1009.9
20260502031939 71 253 3.5 7.8 0.00 0.00 0.00 67 1009.9
20260502031749 71 231 3.5 7.8 0.00 0.00 0.00 67 1009.9
20260502031649 71 239 2.6 7.8 0.00 0.00 0.00 67 1009.9
20260502031542 71 228 2.6 6.1 0.00 0.00 0.00 67 1009.9
20260502031442 71 213 3.5 7.0 0.00 0.00 0.00 67 1009.8
20260502031343 71 204 3.5 7.0 0.00 0.00 0.00 67 1009.9
20260502031323 71 215 3.5 7.0 0.00 0.00 0.00 67 1009.9
20260502031242 71 229 2.6 7.0 0.00 0.00 0.00 66 1009.9
20260502031142 71 233 2.6 7.0 0.00 0.00 0.00 66 1009.9
20260502031046 71 245 2.6 7.0 0.00 0.00 0.00 65 1009.9
20260502031038 71 245 2.6 7.0 0.00 0.00 0.00 66 1009.8
20260502030939 71 239 2.6 7.0 0.00 0.00 0.00 66 1009.8
20260502030926 71 233 2.6 7.0 0.00 0.00 0.00 65 1009.9
20260502030738 71 232 2.6 7.0 0.00 0.00 0.00 65 1009.8
20260502030637 72 228 3.5 7.0 0.00 0.00 0.00 65 1009.8
20260502030540 72 243 3.5 7.8 0.00 0.00 0.00 65 1009.8
20260502030530 72 246 3.5 7.0 0.00 0.00 0.00 65 1009.8
20260502030431 72 217 2.6 7.8 0.00 0.00 0.00 65 1009.8
20260502030421 72 235 3.5 7.8 0.00 0.00 0.00 65 1009.8
20260502030230 72 241 3.5 7.8 0.00 0.00 0.00 65 1009.8
20260502030131 72 215 3.5 7.8 0.00 0.00 0.00 65 1009.8
20260502030024 72 238 3.5 7.8 0.00 0.00 0.00 65 1009.8
20260502025924 72 245 3.5 7.8 0.00 0.00 0.00 65 1009.8
20260502025825 72 240 3.5 7.8 0.00 0.00 0.00 65 1009.8
20260502025811 72 231 3.5 7.8 0.00 0.00 0.00 65 1009.8
20260502025727 72 236 3.5 7.8 0.00 0.00 0.00 65 1009.8
20260502025624 72 193 3.5 7.8 0.00 0.00 0.00 65 1009.8
20260502025520 72 245 3.5 7.8 0.00 0.00 0.00 65 1009.7
20260502025418 72 236 3.5 8.7 0.00 0.00 0.00 65 1009.8
20260502025321 72 234 3.5 8.7 0.00 0.00 0.00 64 1009.7
20260502025310 72 236 3.5 8.7 0.00 0.00 0.00 64 1009.7
20260502025218 72 233 3.5 8.7 0.00 0.00 0.00 64 1009.7
20260502025118 73 216 3.5 8.7 0.00 0.00 0.00 64 1009.7
20260502025013 73 235 3.5 8.7 0.00 0.00 0.00 64 1009.7
20260502024912 73 224 4.3 8.7 0.00 0.00 0.00 63 1009.7
20260502024817 73 228 4.3 8.7 0.00 0.00 0.00 63 1009.7
20260502024713 73 245 4.3 8.7 0.00 0.00 0.00 63 1009.7
20260502024612 73 210 4.3 8.7 0.00 0.00 0.00 63 1009.8
20260502024507 73 231 4.3 9.6 0.00 0.00 0.00 63 1009.7
20260502024406 73 228 4.3 9.6 0.00 0.00 0.00 62 1009.8
20260502024313 73 235 4.3 9.6 0.00 0.00 0.00 62 1009.8
20260502024307 73 232 4.3 9.6 0.00 0.00 0.00 62 1009.8
20260502024206 73 194 4.3 9.6 0.00 0.00 0.00 62 1009.7
20260502024106 73 233 4.3 9.6 0.00 0.00 0.00 61 1009.8
20260502024000 73 222 4.3 9.6 0.00 0.00 0.00 61 1009.8
20260502023900 73 229 4.3 9.6 0.00 0.00 0.00 61 1009.8
20260502023807 74 295 4.3 9.6 0.00 0.00 0.00 61 1009.8
20260502023800 74 239 4.3 9.6 0.00 0.00 0.00 61 1009.8
20260502023701 74 243 4.3 9.6 0.00 0.00 0.00 61 1009.7
20260502023600 74 191 4.3 9.6 0.00 0.00 0.00 61 1009.8
20260502023527 74 262 4.3 7.8 0.00 0.00 0.00 60 1009.7
20260502023456 74 235 4.3 7.8 0.00 0.00 0.00 61 1009.7
20260502023420 74 242 4.3 7.8 0.00 0.00 0.00 60 1009.7
20260502023256 74 224 4.3 7.8 0.00 0.00 0.00 60 1009.7
20260502023156 74 235 3.5 7.8 0.00 0.00 0.00 60 1009.7
20260502023054 74 211 3.5 7.0 0.00 0.00 0.00 60 1009.6
20260502022950 74 218 3.5 7.0 0.00 0.00 0.00 59 1009.6
20260502022849 74 233 3.5 7.0 0.00 0.00 0.00 59 1009.6
20260502022807 74 228 3.5 7.8 0.00 0.00 0.00 59 1009.6
20260502022748 74 252 3.5 7.8 0.00 0.00 0.00 59 1009.6
20260502022648 74 226 3.5 7.8 0.00 0.00 0.00 59 1009.6
20260502022548 74 233 3.5 7.8 0.00 0.00 0.00 58 1009.6
20260502022443 74 210 2.6 7.8 0.00 0.00 0.00 58 1009.6
20260502022342 74 210 2.6 7.8 0.00 0.00 0.00 58 1009.6
20260502022308 74 239 2.6 7.8 0.00 0.00 0.00 58 1009.6
20260502022254 75 224 2.6 8.7 0.00 0.00 0.00 57 1009.6
20260502022242 74 262 2.6 7.8 0.00 0.00 0.00 58 1009.6
20260502022147 74 208 2.6 7.8 0.00 0.00 0.00 58 1009.6
20260502022138 75 198 2.6 8.7 0.00 0.00 0.00 58 1009.6
20260502021938 75 217 2.6 8.7 0.00 0.00 0.00 57 1009.6
20260502021919 75 253 2.6 8.7 0.00 0.00 0.00 57 1009.6
20260502021737 75 238 2.6 8.7 0.00 0.00 0.00 57 1009.6
20260502021636 75 226 2.6 8.7 0.00 0.00 0.00 56 1009.5
20260502021536 75 225 2.6 8.7 0.00 0.00 0.00 56 1009.6
20260502021430 75 245 2.6 8.7 0.00 0.00 0.00 56 1009.6
20260502021330 75 224 2.6 8.7 0.00 0.00 0.00 56 1009.6
20260502021308 75 264 2.6 8.7 0.00 0.00 0.00 55 1009.6
20260502021230 75 219 2.6 8.7 0.00 0.00 0.00 56 1009.6
20260502021130 75 250 1.7 7.0 0.00 0.00 0.00 56 1009.6
20260502021030 75 221 1.7 7.0 0.00 0.00 0.00 56 1009.6
20260502020926 75 203 1.7 7.0 0.00 0.00 0.00 56 1009.5
20260502020807 75 212 1.7 7.0 0.00 0.00 0.00 56 1009.6
20260502020727 76 208 1.7 7.0 0.00 0.00 0.00 55 1009.6
20260502020627 76 212 1.7 7.0 0.00 0.00 0.00 55 1009.5
20260502020530 76 218 2.6 5.2 0.00 0.00 0.00 55 1009.5
20260502020524 76 224 1.7 5.2 0.00 0.00 0.00 55 1009.5
20260502020427 76 181 2.6 5.2 0.00 0.00 0.00 55 1009.5
20260502020419 76 229 2.6 5.2 0.00 0.00 0.00 55 1009.5
20260502020218 76 236 2.6 5.2 0.00 0.00 0.00 55 1009.6
20260502020118 76 239 2.6 5.2 0.00 0.00 0.00 54 1009.5
20260502020018 76 233 2.6 5.2 0.00 0.00 0.00 54 1009.6
20260502015919 76 233 2.6 5.2 0.00 0.00 0.00 54 1009.5
20260502015818 76 217 3.5 5.2 0.00 0.00 0.00 54 1009.5
20260502015807 76 161 3.5 5.2 0.00 0.00 0.00 54 1009.5
20260502015717 76 228 3.5 5.2 0.00 0.00 0.00 53 1009.5
20260502015616 76 222 2.6 5.2 0.00 0.00 0.00 53 1009.5
20260502015516 76 204 2.6 5.2 0.00 0.00 0.00 53 1009.5
20260502015416 76 231 2.6 5.2 0.00 0.00 0.00 53 1009.6
20260502015308 76 245 2.6 5.2 0.00 0.00 0.00 52 1009.5
20260502015213 76 239 2.6 5.2 0.00 0.00 0.00 53 1009.5
20260502015112 76 158 2.6 5.2 0.00 0.00 0.00 52 1009.5
20260502015012 76 238 2.6 5.2 0.00 0.00 0.00 52 1009.5
20260502014914 76 239 2.6 5.2 0.00 0.00 0.00 52 1009.6
20260502014829 76 160 2.6 7.8 0.00 0.00 0.00 52 1009.6
20260502014819 76 162 2.6 7.8 0.00 0.00 0.00 52 1009.6
20260502014710 76 221 2.6 7.8 0.00 0.00 0.00 51 1009.5
20260502014611 76 243 2.6 7.8 0.00 0.00 0.00 51 1009.6
20260502014526 76 250 2.6 7.8 0.00 0.00 0.00 50 1009.6
20260502014510 76 215 2.6 7.8 0.00 0.00 0.00 51 1009.6
20260502014425 76 250 2.6 7.8 0.00 0.00 0.00 50 1009.6
20260502014416 76 250 2.6 7.8 0.00 0.00 0.00 50 1009.6
20260502014211 76 233 2.6 7.8 0.00 0.00 0.00 50 1009.6
20260502014108 76 232 2.6 7.8 0.00 0.00 0.00 49 1009.6
20260502014009 76 235 2.6 7.8 0.00 0.00 0.00 49 1009.7
20260502013908 76 231 2.6 7.8 0.00 0.00 0.00 49 1009.7
20260502013811 76 226 2.6 7.0 0.00 0.00 0.00 49 1009.7
20260502013703 77 231 2.6 6.1 0.00 0.00 0.00 49 1009.7
20260502013603 77 207 2.6 6.1 0.00 0.00 0.00 48 1009.7
20260502013502 77 223 2.6 6.1 0.00 0.00 0.00 48 1009.7
20260502013402 77 240 2.6 6.1 0.00 0.00 0.00 48 1009.7
20260502013304 77 240 2.6 6.1 0.00 0.00 0.00 48 1009.7
20260502013156 77 228 2.6 6.1 0.00 0.00 0.00 48 1009.7
20260502013056 77 239 2.6 6.1 0.00 0.00 0.00 48 1009.6
20260502012957 77 225 2.6 6.1 0.00 0.00 0.00 48 1009.7
20260502012856 77 240 2.6 6.1 0.00 0.00 0.00 49 1009.7
20260502012804 77 224 2.6 6.1 0.00 0.00 0.00 49 1009.7
20260502012756 77 221 2.6 6.1 0.00 0.00 0.00 49 1009.7
20260502012653 77 184 3.5 7.0 0.00 0.00 0.00 49 1009.7
20260502012551 77 210 3.5 7.0 0.00 0.00 0.00 49 1009.6
20260502012450 77 236 3.5 7.0 0.00 0.00 0.00 48 1009.7
20260502012350 77 255 3.5 7.0 0.00 0.00 0.00 48 1009.7
20260502012257 77 239 3.5 7.0 0.00 0.00 0.00 47 1009.7
20260502012250 77 225 3.5 7.0 0.00 0.00 0.00 47 1009.7
20260502012144 77 137 2.6 7.0 0.00 0.00 0.00 47 1009.7
20260502012044 77 219 2.6 7.0 0.00 0.00 0.00 48 1009.7
20260502011945 77 269 2.6 7.0 0.00 0.00 0.00 48 1009.7
20260502011844 77 229 2.6 7.0 0.00 0.00 0.00 48 1009.7
20260502011758 77 232 2.6 7.0 0.00 0.00 0.00 48 1009.7
20260502011743 77 238 1.7 7.0 0.00 0.00 0.00 48 1009.7
20260502011641 77 259 1.7 7.0 0.00 0.00 0.00 50 1009.7
20260502011540 77 222 1.7 6.1 0.00 0.00 0.00 50 1009.7
20260502011440 77 218 1.7 6.1 0.00 0.00 0.00 50 1009.7
20260502011341 77 218 2.6 6.1 0.00 0.00 0.00 51 1009.7
20260502011258 78 242 2.6 6.1 0.00 0.00 0.00 51 1009.7
20260502011238 78 223 2.6 6.1 0.00 0.00 0.00 52 1009.7
20260502011134 78 236 2.6 6.1 0.00 0.00 0.00 52 1009.7
20260502011034 78 228 2.6 6.1 0.00 0.00 0.00 51 1009.7
20260502010934 78 174 2.6 8.7 0.00 0.00 0.00 51 1009.7
20260502010834 78 238 2.6 8.7 0.00 0.00 0.00 51 1009.8
20260502010756 78 239 2.6 8.7 0.00 0.00 0.00 51 1009.8
20260502010732 78 224 2.6 8.7 0.00 0.00 0.00 51 1009.7
20260502010631 78 229 3.5 8.7 0.00 0.00 0.00 51 1009.8
20260502010531 78 228 3.5 8.7 0.00 0.00 0.00 51 1009.8
20260502010428 78 165 3.5 8.7 0.00 0.00 0.00 51 1009.8
20260502010328 78 238 3.5 8.7 0.00 0.00 0.00 51 1009.8
20260502010255 78 231 3.5 8.7 0.00 0.00 0.00 51 1009.8
20260502010227 78 210 3.5 8.7 0.00 0.00 0.00 51 1009.8
20260502010121 78 239 3.5 8.7 0.00 0.00 0.00 51 1009.8
20260502010021 78 214 3.5 8.7 0.00 0.00 0.00 51 1009.8
20260502005920 78 236 3.5 7.8 0.00 0.00 0.00 52 1009.8
20260502005820 78 243 3.5 7.8 0.00 0.00 0.00 51 1009.8
20260502005757 78 266 3.5 7.8 0.00 0.00 0.00 51 1009.8
20260502005720 79 226 3.5 7.8 0.00 0.00 0.00 51 1009.8
20260502005616 79 238 3.5 7.8 0.00 0.00 0.00 51 1009.8
20260502005522 79 232 2.6 6.1 0.00 0.00 0.00 50 1009.7
20260502005515 79 240 2.6 7.8 0.00 0.00 0.00 50 1009.8
20260502005418 79 240 2.6 7.0 0.00 0.00 0.00 50 1009.8
20260502005410 79 233 2.6 6.1 0.00 0.00 0.00 50 1009.7
20260502005214 80 236 1.7 6.1 0.00 0.00 0.00 50 1009.8
20260502005112 80 243 1.7 6.1 0.00 0.00 0.00 50 1009.8
20260502005012 80 240 1.7 4.3 0.00 0.00 0.00 51 1009.8
20260502004910 80 210 0.9 3.5 0.00 0.00 0.00 50 1009.8
20260502004811 80 231 1.7 3.5 0.00 0.00 0.00 50 1009.8
20260502004755 80 231 1.7 3.5 0.00 0.00 0.00 49 1009.8
20260502004708 80 245 1.7 5.2 0.00 0.00 0.00 49 1009.7
20260502004604 80 219 0.9 5.2 0.00 0.00 0.00 49 1009.7
20260502004505 80 195 0.9 5.2 0.00 0.00 0.00 49 1009.8
20260502004405 80 217 1.7 5.2 0.00 0.00 0.00 49 1009.7
20260502004306 80 202 1.7 5.2 0.00 0.00 0.00 49 1009.7
20260502004256 80 221 1.7 5.2 0.00 0.00 0.00 49 1009.7
20260502004202 80 144 1.7 5.2 0.00 0.00 0.00 49 1009.8
20260502004102 80 239 1.7 5.2 0.00 0.00 0.00 49 1009.8
20260502004023 80 246 1.7 5.2 0.00 0.00 0.00 48 1009.8
20260502004000 80 239 1.7 5.2 0.00 0.00 0.00 49 1009.8
20260502003916 80 239 1.7 5.2 0.00 0.00 0.00 48 1009.8
20260502003905 80 246 1.7 5.2 0.00 0.00 0.00 48 1009.8
20260502003738 80 238 1.7 4.3 0.00 0.00 0.00 49 1009.8
20260502003656 80 224 1.7 4.3 0.00 0.00 0.00 49 1009.8
20260502003628 80 224 1.7 4.3 0.00 0.00 0.00 49 1009.8
20260502003450 80 238 1.7 4.3 0.00 0.00 0.00 49 1009.8
20260502003408 80 217 1.7 4.3 0.00 0.00 0.00 48 1009.9
20260502003251 80 238 1.7 4.3 0.00 0.00 0.00 49 1009.8
20260502003150 80 193 2.6 4.3 0.00 0.00 0.00 49 1009.8
20260502003048 80 148 2.6 6.1 0.00 0.00 0.00 49 1009.8
20260502002949 80 231 2.6 6.1 0.00 0.00 0.00 49 1009.8
20260502002847 80 238 2.6 6.1 0.00 0.00 0.00 49 1009.8
20260502002748 80 219 2.6 6.1 0.00 0.00 0.00 50 1009.8
20260502002649 80 242 2.6 6.1 0.00 0.00 0.00 49 1009.8
20260502002546 80 219 2.6 6.1 0.00 0.00 0.00 49 1009.8
20260502002513 80 243 2.6 6.1 0.00 0.00 0.00 50 1009.8
20260502002447 80 224 2.6 6.1 0.00 0.00 0.00 49 1009.8
20260502002403 80 228 2.6 6.1 0.00 0.00 0.00 49 1009.8
20260502002244 80 239 2.6 6.1 0.00 0.00 0.00 50 1009.8
20260502002144 80 229 2.6 6.1 0.00 0.00 0.00 49 1009.9
20260502002045 80 260 2.6 5.2 0.00 0.00 0.00 50 1009.8
20260502001945 80 241 2.6 5.2 0.00 0.00 0.00 50 1009.9
20260502001845 80 154 2.6 5.2 0.00 0.00 0.00 50 1009.9
20260502001753 80 236 2.6 5.2 0.00 0.00 0.00 50 1009.9
20260502001744 80 219 2.6 5.2 0.00 0.00 0.00 50 1009.9
20260502001644 80 210 3.5 6.1 0.00 0.00 0.00 50 1009.9
20260502001545 80 194 3.5 6.1 0.00 0.00 0.00 50 1009.9
20260502001444 80 243 3.5 6.1 0.00 0.00 0.00 49 1009.9
20260502001338 80 189 3.5 6.1 0.00 0.00 0.00 49 1009.9
20260502001253 80 165 3.5 6.1 0.00 0.00 0.00 49 1009.9
20260502001238 80 250 2.6 6.1 0.00 0.00 0.00 49 1009.9
20260502001138 80 133 2.6 6.1 0.00 0.00 0.00 49 1009.9
20260502001036 80 210 2.6 6.1 0.00 0.00 0.00 49 1009.9
20260502000936 80 219 2.6 6.1 0.00 0.00 0.00 49 1009.9
20260502000830 80 181 2.6 6.1 0.00 0.00 0.00 49 1009.9
20260502000753 80 151 2.6 6.1 0.00 0.00 0.00 49 1009.8
20260502000731 80 201 2.6 6.1 0.00 0.00 0.00 49 1009.8
20260502000630 80 215 2.6 6.1 0.00 0.00 0.00 48 1009.8
20260502000530 81 221 1.7 5.2 0.00 0.00 0.00 49 1009.8
20260502000431 81 229 2.6 5.2 0.00 0.00 0.00 49 1009.8
20260502000332 81 207 2.6 6.1 0.00 0.00 0.00 49 1009.8
20260502000247 81 215 2.6 7.8 0.00 0.00 0.00 49 1009.8
20260502000229 81 183 2.6 7.8 0.00 0.00 0.00 49 1009.8
20260502000128 81 276 2.6 7.8 0.00 0.00 0.00 49 1009.9
20260502000026 81 245 2.6 7.8 0.00 0.00 0.00 49 1009.9
20260501235924 81 225 2.6 7.8 0.00 0.00 0.00 49 1009.9
20260501235820 81 236 2.6 7.8 0.00 0.00 0.00 49 1009.9
20260501235740 81 172 2.6 7.8 0.00 0.00 0.00 49 1009.9
20260501235718 81 229 2.6 7.8 0.00 0.00 0.00 49 1009.9
20260501235619 81 218 3.5 7.8 0.00 0.00 0.00 49 1009.9
20260501235518 81 216 3.5 7.8 0.00 0.00 0.00 49 1009.9
20260501235418 81 221 3.5 7.8 0.00 0.00 0.00 49 1009.9
20260501235313 81 235 2.6 7.0 0.00 0.00 0.00 50 1010.0
20260501235233 81 229 2.6 7.0 0.00 0.00 0.00 50 1009.9
20260501235216 82 217 2.6 7.8 0.00 0.00 0.00 49 1010.0
20260501235212 81 240 2.6 7.0 0.00 0.00 0.00 49 1009.9
20260501235113 82 226 2.6 7.0 0.00 0.00 0.00 48 1010.0
20260501235056 82 253 2.6 7.0 0.00 0.00 0.00 49 1010.0
20260501234916 82 250 2.6 6.1 0.00 0.00 0.00 49 1009.9
20260501234839 82 165 2.6 6.1 0.00 0.00 0.00 49 1010.0
20260501234706 82 136 2.6 7.8 0.00 0.00 0.00 49 1010.0
20260501234607 82 231 2.6 7.8 0.00 0.00 0.00 49 1010.0
20260501234506 82 236 2.6 7.8 0.00 0.00 0.00 50 1010.0
20260501234449 83 231 1.7 7.8 0.00 0.00 0.00 48 1010.1
20260501234405 83 259 2.6 7.8 0.00 0.00 0.00 49 1010.0
20260501234335 83 242 2.6 7.8 0.00 0.00 0.00 48 1010.0
20260501234204 83 218 1.7 7.8 0.00 0.00 0.00 48 1010.1
20260501234104 83 242 1.7 7.8 0.00 0.00 0.00 48 1010.1
20260501234002 83 243 1.7 7.8 0.00 0.00 0.00 47 1010.1
20260501233900 84 217 1.7 7.8 0.00 0.00 0.00 47 1010.1
20260501233756 84 207 1.7 7.8 0.00 0.00 0.00 46 1010.1
20260501233716 84 197 0.9 4.3 0.00 0.00 0.00 46 1010.1
20260501233654 84 232 0.9 4.3 0.00 0.00 0.00 46 1010.1
20260501233554 84 217 0.9 4.3 0.00 0.00 0.00 46 1010.2
20260501233455 84 232 0.9 4.3 0.00 0.00 0.00 46 1010.1
20260501233354 84 231 0.9 4.3 0.00 0.00 0.00 46 1010.1
20260501233254 84 266 0.9 4.3 0.00 0.00 0.00 45 1010.1
20260501233210 84 266 0.9 4.3 0.00 0.00 0.00 45 1010.2
20260501233153 85 266 0.9 4.3 0.00 0.00 0.00 45 1010.2
20260501233052 85 266 0.9 4.3 0.00 0.00 0.00 46 1010.2
20260501232950 85 266 0.9 4.3 0.00 0.00 0.00 45 1010.2
20260501232848 85 267 0.9 4.3 0.00 0.00 0.00 45 1010.2
20260501232746 85 226 0.9 3.5 0.00 0.00 0.00 45 1010.2
20260501232704 85 219 0.0 2.6 0.00 0.00 0.00 46 1010.2
20260501232647 85 219 0.0 2.6 0.00 0.00 0.00 45 1010.2
20260501232546 85 220 0.9 2.6 0.00 0.00 0.00 45 1010.2
20260501232444 85 219 0.9 2.6 0.00 0.00 0.00 46 1010.2
20260501232343 85 219 0.9 2.6 0.00 0.00 0.00 46 1010.2
20260501232236 84 219 0.9 2.6 0.00 0.00 0.00 45 1010.2
20260501232159 84 219 0.9 3.5 0.00 0.00 0.00 45 1010.2
20260501232136 84 228 0.9 3.5 0.00 0.00 0.00 45 1010.2
20260501232037 84 228 0.9 3.5 0.00 0.00 0.00 45 1010.2
20260501231937 84 144 0.9 3.5 0.00 0.00 0.00 44 1010.2
20260501231836 84 143 0.9 3.5 0.00 0.00 0.00 45 1010.2
20260501231734 84 143 0.9 3.5 0.00 0.00 0.00 45 1010.3
20260501231653 84 204 0.9 3.5 0.00 0.00 0.00 45 1010.3
20260501231634 84 205 0.9 3.5 0.00 0.00 0.00 47 1010.3
20260501231534 84 231 0.9 3.5 0.00 0.00 0.00 47 1010.3
20260501231433 84 231 0.9 3.5 0.00 0.00 0.00 47 1010.3
20260501231330 84 229 0.9 5.2 0.00 0.00 0.00 47 1010.3
20260501231227 84 224 0.9 5.2 0.00 0.00 0.00 47 1010.3
20260501231146 84 221 0.9 5.2 0.00 0.00 0.00 48 1010.3
20260501231124 84 219 0.9 5.2 0.00 0.00 0.00 48 1010.3
20260501231024 84 212 0.9 5.2 0.00 0.00 0.00 46 1010.3
20260501230925 84 278 0.9 5.2 0.00 0.00 0.00 48 1010.3
20260501230825 84 203 0.9 5.2 0.00 0.00 0.00 47 1010.4
20260501230719 84 124 0.9 5.2 0.00 0.00 0.00 47 1010.3
20260501230639 83 221 0.9 5.2 0.00 0.00 0.00 48 1010.4
20260501230619 83 131 0.9 5.2 0.00 0.00 0.00 49 1010.4
20260501230518 83 163 0.9 5.2 0.00 0.00 0.00 48 1010.4
20260501230418 83 219 0.0 5.2 0.00 0.00 0.00 48 1010.4
20260501230318 83 185 0.0 3.5 0.00 0.00 0.00 48 1010.4
20260501230214 83 222 0.0 3.5 0.00 0.00 0.00 47 1010.4
20260501230135 83 259 0.9 5.2 0.00 0.00 0.00 49 1010.4
20260501230112 83 259 0.9 6.1 0.00 0.00 0.00 49 1010.4
20260501230013 83 259 0.9 6.1 0.00 0.00 0.00 49 1010.5
20260501225912 83 259 0.9 6.1 0.00 0.00 0.00 49 1010.5
20260501225813 83 259 0.9 6.1 0.00 0.00 0.00 49 1010.5
20260501225713 83 259 0.9 6.1 0.00 0.00 0.00 49 1010.5
20260501225610 83 259 0.9 6.1 0.00 0.00 0.00 49 1010.6
20260501225513 83 259 1.7 6.1 0.00 0.00 0.00 48 1010.6
20260501225409 83 259 1.7 6.1 0.00 0.00 0.00 49 1010.6
20260501225306 83 259 1.7 6.1 0.00 0.00 0.00 48 1010.6
20260501225204 83 193 1.7 6.1 0.00 0.00 0.00 48 1010.6
20260501225122 83 176 1.7 6.1 0.00 0.00 0.00 49 1010.6
20260501225104 83 231 1.7 5.2 0.00 0.00 0.00 49 1010.6
20260501225004 83 143 1.7 5.2 0.00 0.00 0.00 49 1010.6
20260501224902 83 141 1.7 5.2 0.00 0.00 0.00 49 1010.7
20260501224800 83 163 1.7 5.2 0.00 0.00 0.00 50 1010.7
20260501224657 83 224 1.7 5.2 0.00 0.00 0.00 50 1010.7
20260501224617 83 224 1.7 5.2 0.00 0.00 0.00 49 1010.7
20260501224555 83 224 1.7 5.2 0.00 0.00 0.00 49 1010.7
20260501224454 83 163 1.7 5.2 0.00 0.00 0.00 50 1010.7
20260501224354 83 233 1.7 5.2 0.00 0.00 0.00 50 1010.8
20260501224255 82 155 1.7 5.2 0.00 0.00 0.00 50 1010.7
20260501224149 82 203 1.7 5.2 0.00 0.00 0.00 49 1010.8
20260501224110 83 200 1.7 5.2 0.00 0.00 0.00 49 1010.8
20260501224048 83 235 1.7 6.1 0.00 0.00 0.00 49 1010.8
20260501223949 83 323 1.7 6.1 0.00 0.00 0.00 50 1010.8
20260501223848 83 323 1.7 6.1 0.00 0.00 0.00 50 1010.9
20260501223748 83 323 2.6 6.1 0.00 0.00 0.00 50 1010.9
20260501223646 83 233 2.6 6.1 0.00 0.00 0.00 50 1010.9
20260501223604 83 233 2.6 6.1 0.00 0.00 0.00 50 1010.9
20260501223546 83 233 2.6 6.1 0.00 0.00 0.00 50 1011.0
20260501223447 83 233 2.6 6.1 0.00 0.00 0.00 50 1011.0
20260501223344 83 240 2.6 6.1 0.00 0.00 0.00 51 1011.0
20260501223242 83 184 2.6 6.1 0.00 0.00 0.00 51 1011.0
20260501223137 83 229 1.7 7.0 0.00 0.00 0.00 50 1011.0
20260501223057 83 193 1.7 7.0 0.00 0.00 0.00 50 1011.0
20260501223036 82 222 1.7 7.0 0.00 0.00 0.00 50 1011.0
20260501222937 82 245 1.7 7.0 0.00 0.00 0.00 50 1011.1
20260501222836 82 135 1.7 7.0 0.00 0.00 0.00 50 1011.1
20260501222736 82 276 1.7 7.0 0.00 0.00 0.00 50 1011.1
20260501222632 82 235 1.7 7.0 0.00 0.00 0.00 50 1011.1
20260501222555 83 233 1.7 7.0 0.00 0.00 0.00 50 1011.1
20260501222530 83 210 1.7 7.0 0.00 0.00 0.00 50 1011.2
20260501222430 83 245 1.7 7.0 0.00 0.00 0.00 50 1011.2
20260501222330 83 260 1.7 7.0 0.00 0.00 0.00 50 1011.2
20260501222230 83 250 1.7 7.0 0.00 0.00 0.00 51 1011.2
20260501222126 83 219 1.7 6.1 0.00 0.00 0.00 51 1011.3
20260501222047 83 220 2.6 6.1 0.00 0.00 0.00 50 1011.3
20260501222024 83 219 2.6 6.1 0.00 0.00 0.00 50 1011.3
20260501221925 82 221 2.6 7.0 0.00 0.00 0.00 51 1011.3
20260501221824 82 276 2.6 7.0 0.00 0.00 0.00 51 1011.2
20260501221803 82 205 2.6 7.0 0.00 0.00 0.00 51 1011.3
20260501221727 82 255 2.6 7.0 0.00 0.00 0.00 51 1011.3
20260501221651 82 224 2.6 7.0 0.00 0.00 0.00 50 1011.3
20260501221520 82 225 2.6 7.0 0.00 0.00 0.00 51 1011.3
20260501221421 82 224 2.6 7.0 0.00 0.00 0.00 50 1011.3
20260501221320 82 212 2.6 7.0 0.00 0.00 0.00 51 1011.3
20260501221218 82 224 2.6 7.0 0.00 0.00 0.00 50 1011.3
20260501221114 82 231 2.6 7.0 0.00 0.00 0.00 50 1011.3
20260501221034 82 228 2.6 7.0 0.00 0.00 0.00 50 1011.4
20260501221012 82 232 2.6 7.0 0.00 0.00 0.00 50 1011.4
20260501220913 82 149 2.6 7.0 0.00 0.00 0.00 50 1011.4
20260501220813 82 233 2.6 7.0 0.00 0.00 0.00 50 1011.3
20260501220712 82 239 2.6 7.0 0.00 0.00 0.00 50 1011.4
20260501220607 82 256 2.6 7.8 0.00 0.00 0.00 51 1011.5
20260501220527 82 243 2.6 7.8 0.00 0.00 0.00 51 1011.4
20260501220506 82 235 2.6 7.8 0.00 0.00 0.00 51 1011.4
20260501220406 82 141 2.6 7.8 0.00 0.00 0.00 51 1011.4
20260501220307 81 235 2.6 7.8 0.00 0.00 0.00 51 1011.5
20260501220206 81 232 2.6 7.8 0.00 0.00 0.00 51 1011.5
20260501220024 81 217 2.6 7.8 0.00 0.00 0.00 50 1011.6
20260501220000 81 221 2.6 7.8 0.00 0.00 0.00 50 1011.6
20260501215904 82 204 2.6 7.8 0.00 0.00 0.00 50 1011.5
20260501215800 82 225 2.6 7.8 0.00 0.00 0.00 50 1011.6
20260501215700 82 241 2.6 7.8 0.00 0.00 0.00 50 1011.6
20260501215554 82 212 2.6 7.8 0.00 0.00 0.00 50 1011.6
20260501215515 82 224 2.6 7.8 0.00 0.00 0.00 51 1011.6
20260501215455 82 242 2.6 7.8 0.00 0.00 0.00 51 1011.6
20260501215354 82 174 2.6 7.8 0.00 0.00 0.00 51 1011.6
20260501215254 82 199 2.6 7.8 0.00 0.00 0.00 51 1011.6
20260501215154 81 242 2.6 7.8 0.00 0.00 0.00 51 1011.6
20260501215050 81 287 2.6 7.8 0.00 0.00 0.00 50 1011.6
20260501215010 81 222 2.6 7.8 0.00 0.00 0.00 49 1011.6
20260501214950 81 144 2.6 7.8 0.00 0.00 0.00 49 1011.6
20260501214850 81 226 2.6 7.8 0.00 0.00 0.00 49 1011.6
20260501214750 82 214 2.6 7.8 0.00 0.00 0.00 49 1011.6
20260501214648 82 208 2.6 7.8 0.00 0.00 0.00 49 1011.6
20260501214542 82 238 1.7 5.2 0.00 0.00 0.00 51 1011.6
20260501214505 82 242 1.7 5.2 0.00 0.00 0.00 50 1011.6
20260501214443 82 242 1.7 5.2 0.00 0.00 0.00 50 1011.6
20260501214342 82 218 0.9 5.2 0.00 0.00 0.00 50 1011.7
20260501214242 82 224 0.9 5.2 0.00 0.00 0.00 50 1011.7
20260501214143 82 221 0.9 5.2 0.00 0.00 0.00 52 1011.7
20260501214039 82 218 0.9 5.2 0.00 0.00 0.00 51 1011.6
20260501213958 82 207 0.9 5.2 0.00 0.00 0.00 50 1011.6
20260501213936 82 245 0.9 5.2 0.00 0.00 0.00 50 1011.6
20260501213836 82 233 0.9 5.2 0.00 0.00 0.00 50 1011.7
20260501213736 82 228 0.9 4.3 0.00 0.00 0.00 51 1011.7
20260501213636 82 300 1.7 4.3 0.00 0.00 0.00 51 1011.7
20260501213533 82 300 1.7 5.2 0.00 0.00 0.00 51 1011.7
20260501213431 82 30 1.7 7.8 0.00 0.00 0.00 50 1011.7
20260501213330 82 332 1.7 7.8 0.00 0.00 0.00 50 1011.7
20260501213230 82 215 1.7 7.8 0.00 0.00 0.00 52 1011.7
20260501213130 82 219 1.7 7.8 0.00 0.00 0.00 50 1011.8
20260501213024 81 239 1.7 7.8 0.00 0.00 0.00 50 1011.8
20260501212924 81 246 2.6 7.8 0.00 0.00 0.00 49 1011.8
20260501212825 82 204 2.6 7.8 0.00 0.00 0.00 50 1011.8
20260501212727 82 240 2.6 7.8 0.00 0.00 0.00 49 1011.8
20260501212702 82 231 1.7 6.1 0.00 0.00 0.00 49 1011.8
20260501212624 82 144 2.6 7.8 0.00 0.00 0.00 49 1011.8
20260501212552 82 219 1.7 7.8 0.00 0.00 0.00 49 1011.8
20260501212423 82 231 1.7 6.1 0.00 0.00 0.00 49 1011.8
20260501212322 82 259 1.7 6.1 0.00 0.00 0.00 49 1011.8
20260501212220 82 200 2.6 7.0 0.00 0.00 0.00 48 1011.8
20260501212120 82 218 1.7 7.0 0.00 0.00 0.00 50 1011.8
20260501212012 82 208 1.7 7.0 0.00 0.00 0.00 49 1011.8
20260501211933 82 193 1.7 7.0 0.00 0.00 0.00 49 1011.8
20260501211912 82 222 1.7 7.0 0.00 0.00 0.00 49 1011.8
20260501211813 82 225 1.7 7.0 0.00 0.00 0.00 49 1011.8
20260501211712 82 229 0.9 7.0 0.00 0.00 0.00 49 1011.8
20260501211613 82 179 0.9 7.0 0.00 0.00 0.00 49 1011.9
20260501211511 82 144 1.7 7.0 0.00 0.00 0.00 49 1011.8
20260501211433 83 143 0.9 7.0 0.00 0.00 0.00 49 1011.9
20260501211410 83 143 0.9 7.0 0.00 0.00 0.00 47 1011.9
20260501211308 83 159 0.9 7.0 0.00 0.00 0.00 47 1011.9
20260501211209 83 235 0.9 2.6 0.00 0.00 0.00 48 1011.9
20260501211106 83 253 0.9 1.7 0.00 0.00 0.00 49 1011.8
20260501211002 83 150 0.9 1.7 0.00 0.00 0.00 49 1011.8
20260501210932 83 103 0.9 1.7 0.00 0.00 0.00 49 1011.8
20260501210904 83 103 0.9 2.6 0.00 0.00 0.00 50 1011.8
20260501210801 83 138 0.9 3.5 0.00 0.00 0.00 49 1011.8
20260501210700 83 138 0.9 3.5 0.00 0.00 0.00 49 1011.9
20260501210600 83 136 0.9 3.5 0.00 0.00 0.00 50 1011.8
20260501210500 83 262 0.9 3.5 0.00 0.00 0.00 50 1011.9
20260501210430 83 262 0.9 3.5 0.00 0.00 0.00 50 1011.9
20260501210358 83 262 0.9 3.5 0.00 0.00 0.00 50 1011.9
20260501210258 82 261 0.9 3.5 0.00 0.00 0.00 51 1011.8
20260501210156 82 262 0.9 3.5 0.00 0.00 0.00 51 1011.8
20260501210056 82 262 0.9 3.5 0.00 0.00 0.00 52 1011.9
20260501205930 82 262 0.9 3.5 0.00 0.00 0.00 52 1011.9
20260501205849 81 136 0.9 3.5 0.00 0.00 0.00 51 1011.9
20260501205748 81 190 0.9 3.5 0.00 0.00 0.00 52 1011.9
20260501205648 81 338 0.9 3.5 0.00 0.00 0.00 52 1011.9
20260501205549 81 336 0.9 6.1 0.00 0.00 0.00 51 1011.9
20260501205445 81 300 0.9 6.1 0.00 0.00 0.00 52 1012.0
20260501205430 81 301 0.9 6.1 0.00 0.00 0.00 52 1012.0
20260501205343 81 300 0.9 6.1 0.00 0.00 0.00 52 1012.0
20260501205242 81 219 0.9 6.1 0.00 0.00 0.00 53 1012.0
20260501205142 80 139 0.9 6.1 0.00 0.00 0.00 51 1012.0
20260501205042 80 205 1.7 6.1 0.00 0.00 0.00 51 1012.0
20260501204930 80 224 1.7 6.1 0.00 0.00 0.00 53 1012.0
20260501204837 80 177 1.7 6.1 0.00 0.00 0.00 54 1012.0
20260501204736 80 253 1.7 6.1 0.00 0.00 0.00 54 1012.1
20260501204637 80 253 2.6 6.1 0.00 0.00 0.00 53 1012.1
20260501204536 79 248 2.6 6.1 0.00 0.00 0.00 54 1012.1
20260501204432 79 199 2.6 6.1 0.00 0.00 0.00 54 1012.1
20260501204331 79 231 2.6 6.1 0.00 0.00 0.00 53 1012.1
20260501204230 79 221 2.6 6.1 0.00 0.00 0.00 53 1012.2
20260501204151 79 239 1.7 6.1 0.00 0.00 0.00 53 1012.1
20260501204131 79 232 2.6 6.1 0.00 0.00 0.00 52 1012.1
20260501204047 79 229 2.6 6.1 0.00 0.00 0.00 52 1012.1
20260501204037 79 239 1.7 6.1 0.00 0.00 0.00 53 1012.1
20260501203828 79 253 1.7 6.1 0.00 0.00 0.00 54 1012.1
20260501203728 79 228 1.7 6.1 0.00 0.00 0.00 53 1012.2
20260501203628 79 207 1.7 6.1 0.00 0.00 0.00 53 1012.2
20260501203528 79 232 2.6 6.1 0.00 0.00 0.00 54 1012.2
20260501203431 78 219 2.6 7.8 0.00 0.00 0.00 56 1012.2
20260501203329 78 264 2.6 8.7 0.00 0.00 0.00 55 1012.2
20260501203228 78 141 3.5 8.7 0.00 0.00 0.00 55 1012.2
20260501203157 78 179 3.5 8.7 0.00 0.00 0.00 55 1012.3
20260501203129 78 250 3.5 8.7 0.00 0.00 0.00 55 1012.3
20260501203046 78 224 3.5 8.7 0.00 0.00 0.00 54 1012.3
20260501203036 78 179 3.5 8.7 0.00 0.00 0.00 55 1012.3
20260501202829 78 200 4.3 8.7 0.00 0.00 0.00 56 1012.4
20260501202729 78 225 4.3 8.7 0.00 0.00 0.00 54 1012.4
20260501202649 78 229 3.5 9.6 0.00 0.00 0.00 54 1012.4
20260501202628 78 178 4.3 9.6 0.00 0.00 0.00 54 1012.4
20260501202547 78 215 3.5 9.6 0.00 0.00 0.00 53 1012.4
20260501202536 78 229 3.5 9.6 0.00 0.00 0.00 54 1012.4
20260501202328 78 233 3.5 9.6 0.00 0.00 0.00 55 1012.4
20260501202227 78 222 3.5 9.6 0.00 0.00 0.00 53 1012.4
20260501202154 80 231 1.7 9.6 0.00 0.00 0.00 53 1012.4
20260501202126 79 236 2.6 9.6 0.00 0.00 0.00 52 1012.5
20260501202042 79 221 2.6 9.6 0.00 0.00 0.00 52 1012.4
20260501201925 80 214 1.7 9.6 0.00 0.00 0.00 53 1012.4
20260501201824 79 107 1.7 9.6 0.00 0.00 0.00 53 1012.4
20260501201723 79 134 1.7 9.6 0.00 0.00 0.00 53 1012.5
20260501201622 79 149 1.7 7.0 0.00 0.00 0.00 56 1012.5
20260501201522 79 255 2.6 7.8 0.00 0.00 0.00 56 1012.5
20260501201428 78 254 1.7 7.8 0.00 0.00 0.00 54 1012.5
20260501201420 78 169 1.7 7.8 0.00 0.00 0.00 54 1012.5
20260501201320 78 203 1.7 7.8 0.00 0.00 0.00 55 1012.5
20260501201218 78 170 1.7 7.8 0.00 0.00 0.00 55 1012.5
20260501201141 77 236 2.6 7.8 0.00 0.00 0.00 56 1012.5
20260501201118 77 219 1.7 7.8 0.00 0.00 0.00 56 1012.5
20260501201035 77 236 2.6 7.8 0.00 0.00 0.00 56 1012.5
20260501200916 77 236 2.6 7.8 0.00 0.00 0.00 56 1012.5
20260501200816 77 238 2.6 7.8 0.00 0.00 0.00 55 1012.5
20260501200714 77 236 2.6 7.8 0.00 0.00 0.00 55 1012.5
20260501200612 77 246 2.6 7.8 0.00 0.00 0.00 55 1012.6
20260501200513 77 231 1.7 7.0 0.00 0.00 0.00 55 1012.6
20260501200424 77 136 1.7 7.0 0.00 0.00 0.00 56 1012.6
20260501200412 77 245 1.7 7.0 0.00 0.00 0.00 56 1012.6
20260501200313 77 252 1.7 7.0 0.00 0.00 0.00 56 1012.7
20260501200211 77 239 1.7 7.0 0.00 0.00 0.00 55 1012.6
20260501200109 77 233 1.7 7.0 0.00 0.00 0.00 54 1012.7
20260501200009 78 264 1.7 7.0 0.00 0.00 0.00 54 1012.7
20260501195925 78 231 1.7 7.0 0.00 0.00 0.00 54 1012.7